Time,TemperatureF,DewpointF,PressureIn,WindDirection,WindDirectionDegrees,WindSpeedMPH,WindSpeedGustMPH,Humidity,HourlyPrecipIn,Conditions,Clouds,dailyrainin,SoftwareType,DateUTC
2013-01-18 00:01:00,17.6,4.9,30.12,South,173,1.0,2.0,57,0.00,,,0.00,Wunderground v.1.15,2013-01-18 05:01:00,
2013-01-18 00:03:00,17.5,4.8,30.12,South,174,1.0,2.0,57,0.00,,,0.00,Wunderground v.1.15,2013-01-18 05:03:00,
2013-01-18 00:07:00,17.4,4.7,30.12,South,173,0.0,2.0,57,0.00,,,0.00,Wunderground v.1.15,2013-01-18 05:07:00,
2013-01-18 00:13:00,17.3,4.7,30.14,South,173,0.0,1.0,57,0.00,,,0.00,Wunderground v.1.15,2013-01-18 05:13:00,
2013-01-18 00:15:00,17.2,4.2,30.14,South,173,0.0,1.0,56,0.00,,,0.00,Wunderground v.1.15,2013-01-18 05:15:00,
2013-01-18 00:16:00,17.1,3.7,30.15,South,173,1.0,1.0,55,0.00,,,0.00,Wunderground v.1.15,2013-01-18 05:16:00,
2013-01-18 00:19:00,17.0,2.4,30.15,South,174,2.0,2.0,52,0.00,,,0.00,Wunderground v.1.15,2013-01-18 05:19:00,
2013-01-18 00:22:00,16.8,2.2,30.15,South,174,1.0,1.0,52,0.00,,,0.00,Wunderground v.1.15,2013-01-18 05:22:00,
2013-01-18 00:23:00,16.7,1.3,30.15,South,174,2.0,2.0,50,0.00,,,0.00,Wunderground v.1.15,2013-01-18 05:23:00,
2013-01-18 00:24:00,16.7,1.3,30.15,South,173,0.0,2.0,50,0.00,,,0.00,Wunderground v.1.15,2013-01-18 05:24:00,
2013-01-18 00:26:00,16.6,2.8,30.16,South,173,1.0,2.0,54,0.00,,,0.00,Wunderground v.1.15,2013-01-18 05:26:00,
2013-01-18 00:30:00,16.5,1.1,30.16,South,174,1.0,1.0,50,0.00,,,0.00,Wunderground v.1.15,2013-01-18 05:30:00,
2013-01-18 00:31:00,16.4,1.0,30.16,South,174,1.0,1.0,50,0.00,,,0.00,Wunderground v.1.15,2013-01-18 05:31:00,
2013-01-18 00:34:00,16.3,1.7,30.16,South,173,1.0,1.0,52,0.00,,,0.00,Wunderground v.1.15,2013-01-18 05:34:00,
2013-01-18 00:36:00,16.2,1.2,30.16,South,174,1.0,2.0,51,0.00,,,0.00,Wunderground v.1.15,2013-01-18 05:36:00,
2013-01-18 00:41:00,16.0,1.0,30.16,South,173,0.0,1.0,51,0.00,,,0.00,Wunderground v.1.15,2013-01-18 05:41:00,
2013-01-18 00:42:00,16.0,1.0,30.16,South,173,0.0,1.0,51,0.00,,,0.00,Wunderground v.1.15,2013-01-18 05:42:00,
2013-01-18 00:44:00,16.0,1.9,30.16,South,173,0.0,1.0,53,0.00,,,0.00,Wunderground v.1.15,2013-01-18 05:44:00,
2013-01-18 00:48:00,16.0,2.3,30.17,South,173,0.0,1.0,54,0.00,,,0.00,Wunderground v.1.15,2013-01-18 05:48:00,
2013-01-18 00:49:00,16.0,1.9,30.17,South,173,0.0,1.0,53,0.00,,,0.00,Wunderground v.1.15,2013-01-18 05:49:00,
2013-01-18 00:55:00,15.8,2.1,30.14,South,174,0.0,2.0,54,0.00,,,0.00,Wunderground v.1.15,2013-01-18 05:55:00,
2013-01-18 00:56:00,15.8,2.5,30.15,South,173,1.0,2.0,55,0.00,,,0.00,Wunderground v.1.15,2013-01-18 05:56:00,
2013-01-18 01:01:00,15.8,3.2,30.15,South,173,0.0,0.0,57,0.00,,,0.00,Wunderground v.1.15,2013-01-18 06:01:00,
2013-01-18 01:02:00,15.8,3.2,30.14,South,173,0.0,0.0,57,0.00,,,0.00,Wunderground v.1.15,2013-01-18 06:02:00,
2013-01-18 01:04:00,15.8,2.9,30.14,South,173,0.0,0.0,56,0.00,,,0.00,Wunderground v.1.15,2013-01-18 06:04:00,
2013-01-18 01:07:00,15.7,2.0,30.15,South,173,0.0,0.0,54,0.00,,,0.00,Wunderground v.1.15,2013-01-18 06:07:00,
2013-01-18 01:09:00,15.6,1.9,30.15,South,174,0.0,0.0,54,0.00,,,0.00,Wunderground v.1.15,2013-01-18 06:09:00,
2013-01-18 01:10:00,15.6,1.9,30.15,South,173,0.0,0.0,54,0.00,,,0.00,Wunderground v.1.15,2013-01-18 06:10:00,
2013-01-18 01:14:00,15.6,1.9,30.16,South,173,1.0,1.0,54,0.00,,,0.00,Wunderground v.1.15,2013-01-18 06:14:00,
2013-01-18 01:18:00,15.5,2.2,30.15,South,174,0.0,1.0,55,0.00,,,0.00,Wunderground v.1.15,2013-01-18 06:18:00,
2013-01-18 01:21:00,15.5,1.8,30.14,South,174,0.0,0.0,54,0.00,,,0.00,Wunderground v.1.15,2013-01-18 06:21:00,
2013-01-18 01:23:00,15.5,1.8,30.15,South,173,0.0,0.0,54,0.00,,,0.00,Wunderground v.1.15,2013-01-18 06:23:00,
2013-01-18 01:24:00,15.4,2.1,30.15,South,174,1.0,1.0,55,0.00,,,0.00,Wunderground v.1.15,2013-01-18 06:24:00,
2013-01-18 01:30:00,15.3,1.2,30.16,South,173,1.0,1.0,53,0.00,,,0.00,Wunderground v.1.15,2013-01-18 06:30:00,
2013-01-18 01:31:00,15.2,1.1,30.16,South,174,1.0,1.0,53,0.00,,,0.00,Wunderground v.1.15,2013-01-18 06:31:00,
2013-01-18 01:32:00,15.2,1.5,30.15,South,173,0.0,1.0,54,0.00,,,0.00,Wunderground v.1.15,2013-01-18 06:32:00,
2013-01-18 01:38:00,15.2,3.1,30.13,South,174,0.0,1.0,58,0.00,,,0.00,Wunderground v.1.15,2013-01-18 06:38:00,
2013-01-18 01:41:00,15.2,3.4,30.15,South,173,0.0,0.0,59,0.00,,,0.00,Wunderground v.1.15,2013-01-18 06:41:00,
2013-01-18 01:43:00,15.2,3.4,30.15,South,173,0.0,1.0,59,0.00,,,0.00,Wunderground v.1.15,2013-01-18 06:43:00,
2013-01-18 01:44:00,15.2,3.8,30.15,South,174,1.0,1.0,60,0.00,,,0.00,Wunderground v.1.15,2013-01-18 06:44:00,
2013-01-18 01:46:00,15.2,3.4,30.15,South,173,0.0,1.0,59,0.00,,,0.00,Wunderground v.1.15,2013-01-18 06:46:00,
2013-01-18 01:50:00,15.2,3.8,30.15,South,173,0.0,1.0,60,0.00,,,0.00,Wunderground v.1.15,2013-01-18 06:50:00,
2013-01-18 01:52:00,15.2,3.8,30.16,South,173,0.0,0.0,60,0.00,,,0.00,Wunderground v.1.15,2013-01-18 06:52:00,
2013-01-18 01:53:00,15.1,3.7,30.16,South,173,1.0,1.0,60,0.00,,,0.00,Wunderground v.1.15,2013-01-18 06:53:00,
2013-01-18 01:54:00,15.1,3.3,30.17,South,173,0.0,1.0,59,0.00,,,0.00,Wunderground v.1.15,2013-01-18 06:54:00,
2013-01-18 02:01:00,14.9,1.6,30.17,South,173,0.0,0.0,55,0.00,,,0.00,Wunderground v.1.15,2013-01-18 07:01:00,
2013-01-18 02:02:00,14.9,1.6,30.17,South,173,0.0,0.0,55,0.00,,,0.00,Wunderground v.1.15,2013-01-18 07:02:00,
2013-01-18 02:06:00,14.8,1.5,30.19,South,173,0.0,0.0,55,0.00,,,0.00,Wunderground v.1.15,2013-01-18 07:06:00,
2013-01-18 02:07:00,14.8,1.5,30.19,South,173,0.0,0.0,55,0.00,,,0.00,Wunderground v.1.15,2013-01-18 07:07:00,
2013-01-18 02:12:00,14.7,1.8,30.19,South,173,1.0,1.0,56,0.00,,,0.00,Wunderground v.1.15,2013-01-18 07:12:00,
2013-01-18 02:17:00,14.5,2.0,30.19,South,173,0.0,2.0,57,0.00,,,0.00,Wunderground v.1.15,2013-01-18 07:17:00,
2013-01-18 02:18:00,14.4,2.3,30.19,South,174,1.0,2.0,58,0.00,,,0.00,Wunderground v.1.15,2013-01-18 07:18:00,
2013-01-18 02:22:00,14.4,3.7,30.19,South,173,0.0,1.0,62,0.00,,,0.00,Wunderground v.1.15,2013-01-18 07:22:00,
2013-01-18 02:23:00,14.4,4.1,30.19,South,173,0.0,1.0,63,0.00,,,0.00,Wunderground v.1.15,2013-01-18 07:23:00,
2013-01-18 02:27:00,14.3,3.6,30.19,South,173,0.0,3.0,62,0.00,,,0.00,Wunderground v.1.15,2013-01-18 07:27:00,
2013-01-18 02:28:00,14.2,3.6,30.19,South,174,0.0,3.0,62,0.00,,,0.00,Wunderground v.1.15,2013-01-18 07:28:00,
2013-01-18 02:32:00,14.0,3.7,30.19,South,173,0.0,1.0,63,0.00,,,0.00,Wunderground v.1.15,2013-01-18 07:32:00,
2013-01-18 02:33:00,14.0,4.1,30.19,South,173,0.0,1.0,64,0.00,,,0.00,Wunderground v.1.15,2013-01-18 07:33:00,
2013-01-18 02:37:00,13.8,3.5,30.20,South,173,1.0,3.0,63,0.00,,,0.00,Wunderground v.1.15,2013-01-18 07:37:00,
2013-01-18 02:38:00,13.8,3.5,30.21,South,174,0.0,3.0,63,0.00,,,0.00,Wunderground v.1.15,2013-01-18 07:38:00,
2013-01-18 02:42:00,13.6,3.3,30.20,South,174,0.0,2.0,63,0.00,,,0.00,Wunderground v.1.15,2013-01-18 07:42:00,
2013-01-18 02:43:00,13.5,3.2,30.20,South,174,1.0,2.0,63,0.00,,,0.00,Wunderground v.1.15,2013-01-18 07:43:00,
2013-01-18 02:47:00,13.3,3.7,30.19,South,173,0.0,2.0,65,0.00,,,0.00,Wunderground v.1.15,2013-01-18 07:47:00,
2013-01-18 02:48:00,13.3,3.7,30.19,South,173,0.0,2.0,65,0.00,,,0.00,Wunderground v.1.15,2013-01-18 07:48:00,
2013-01-18 02:52:00,13.2,4.0,30.21,South,173,0.0,1.0,66,0.00,,,0.00,Wunderground v.1.15,2013-01-18 07:52:00,
2013-01-18 02:53:00,13.2,4.0,30.21,South,174,0.0,1.0,66,0.00,,,0.00,Wunderground v.1.15,2013-01-18 07:53:00,
2013-01-18 02:54:00,13.2,3.6,30.21,South,174,0.0,1.0,65,0.00,,,0.00,Wunderground v.1.15,2013-01-18 07:54:00,
2013-01-18 02:57:00,13.1,3.9,30.22,South,173,0.0,1.0,66,0.00,,,0.00,Wunderground v.1.15,2013-01-18 07:57:00,
2013-01-18 02:58:00,13.0,3.4,30.22,South,173,0.0,1.0,65,0.00,,,0.00,Wunderground v.1.15,2013-01-18 07:58:00,
2013-01-18 02:59:00,13.0,3.4,30.21,South,173,1.0,1.0,65,0.00,,,0.00,Wunderground v.1.15,2013-01-18 07:59:00,
2013-01-18 03:02:00,12.9,3.7,30.20,South,173,1.0,2.0,66,0.00,,,0.00,Wunderground v.1.15,2013-01-18 08:02:00,
2013-01-18 03:03:00,12.8,3.2,30.20,South,174,1.0,2.0,65,0.00,,,0.00,Wunderground v.1.15,2013-01-18 08:03:00,
2013-01-18 03:04:00,12.8,3.2,30.20,South,173,1.0,2.0,65,0.00,,,0.00,Wunderground v.1.15,2013-01-18 08:04:00,
2013-01-18 03:07:00,12.5,3.0,30.20,South,173,0.0,2.0,65,0.00,,,0.00,Wunderground v.1.15,2013-01-18 08:07:00,
2013-01-18 03:09:00,12.5,3.0,30.20,South,173,1.0,2.0,65,0.00,,,0.00,Wunderground v.1.15,2013-01-18 08:09:00,
2013-01-18 03:12:00,12.3,3.1,30.20,South,173,1.0,1.0,66,0.00,,,0.00,Wunderground v.1.15,2013-01-18 08:12:00,
2013-01-18 03:14:00,12.3,3.4,30.20,South,174,0.0,1.0,67,0.00,,,0.00,Wunderground v.1.15,2013-01-18 08:14:00,
2013-01-18 03:17:00,12.2,3.6,30.20,South,173,0.0,1.0,68,0.00,,,0.00,Wunderground v.1.15,2013-01-18 08:17:00,
2013-01-18 03:19:00,12.1,3.6,30.20,South,173,1.0,1.0,68,0.00,,,0.00,Wunderground v.1.15,2013-01-18 08:19:00,
2013-01-18 03:22:00,12.1,3.2,30.20,South,173,0.0,1.0,67,0.00,,,0.00,Wunderground v.1.15,2013-01-18 08:22:00,
2013-01-18 03:24:00,12.0,3.1,30.20,South,173,1.0,2.0,67,0.00,,,0.00,Wunderground v.1.15,2013-01-18 08:24:00,
2013-01-18 03:25:00,12.0,3.5,30.20,South,174,0.0,2.0,68,0.00,,,0.00,Wunderground v.1.15,2013-01-18 08:25:00,
2013-01-18 03:28:00,11.9,3.0,30.20,South,174,0.0,2.0,67,0.00,,,0.00,Wunderground v.1.15,2013-01-18 08:28:00,
2013-01-18 03:29:00,11.9,3.0,30.20,South,173,0.0,2.0,67,0.00,,,0.00,Wunderground v.1.15,2013-01-18 08:29:00,
2013-01-18 03:30:00,11.8,3.3,30.21,South,173,0.0,0.0,68,0.00,,,0.00,Wunderground v.1.15,2013-01-18 08:30:00,
2013-01-18 03:33:00,11.7,3.2,30.20,South,173,0.0,1.0,68,0.00,,,0.00,Wunderground v.1.15,2013-01-18 08:33:00,
2013-01-18 03:34:00,11.7,3.2,30.20,South,174,0.0,1.0,68,0.00,,,0.00,Wunderground v.1.15,2013-01-18 08:34:00,
2013-01-18 03:35:00,11.6,3.1,30.20,South,173,0.0,1.0,68,0.00,,,0.00,Wunderground v.1.15,2013-01-18 08:35:00,
2013-01-18 03:38:00,11.5,3.0,30.20,South,173,0.0,1.0,68,0.00,,,0.00,Wunderground v.1.15,2013-01-18 08:38:00,
2013-01-18 03:39:00,11.5,3.0,30.20,South,173,0.0,1.0,68,0.00,,,0.00,Wunderground v.1.15,2013-01-18 08:39:00,
2013-01-18 03:41:00,11.5,3.0,30.20,South,174,0.0,0.0,68,0.00,,,0.00,Wunderground v.1.15,2013-01-18 08:41:00,
2013-01-18 03:43:00,11.4,3.2,30.20,South,174,0.0,1.0,69,0.00,,,0.00,Wunderground v.1.15,2013-01-18 08:43:00,
2013-01-18 03:44:00,11.4,3.2,30.20,South,173,0.0,1.0,69,0.00,,,0.00,Wunderground v.1.15,2013-01-18 08:44:00,
2013-01-18 03:46:00,11.4,3.5,30.20,South,173,0.0,1.0,70,0.00,,,0.00,Wunderground v.1.15,2013-01-18 08:46:00,
2013-01-18 03:48:00,11.3,3.1,30.20,South,173,1.0,1.0,69,0.00,,,0.00,Wunderground v.1.15,2013-01-18 08:48:00,
2013-01-18 03:50:00,11.2,2.7,30.19,South,174,0.0,0.0,68,0.00,,,0.00,Wunderground v.1.15,2013-01-18 08:50:00,
2013-01-18 03:51:00,11.2,2.7,30.20,South,173,0.0,0.0,68,0.00,,,0.00,Wunderground v.1.15,2013-01-18 08:51:00,
2013-01-18 03:53:00,11.1,2.9,30.20,South,173,0.0,0.0,69,0.00,,,0.00,Wunderground v.1.15,2013-01-18 08:53:00,
2013-01-18 03:55:00,11.0,2.8,30.20,South,173,0.0,0.0,69,0.00,,,0.00,Wunderground v.1.15,2013-01-18 08:55:00,
2013-01-18 03:56:00,11.0,2.8,30.20,South,173,0.0,0.0,69,0.00,,,0.00,Wunderground v.1.15,2013-01-18 08:56:00,
2013-01-18 03:58:00,10.9,2.7,30.20,South,173,0.0,0.0,69,0.00,,,0.00,Wunderground v.1.15,2013-01-18 08:58:00,
2013-01-18 04:01:00,10.9,2.7,30.20,South,174,0.0,0.0,69,0.00,,,0.00,Wunderground v.1.15,2013-01-18 09:01:00,
2013-01-18 04:03:00,10.8,2.6,30.20,South,173,0.0,0.0,69,0.00,,,0.00,Wunderground v.1.15,2013-01-18 09:03:00,
2013-01-18 04:06:00,10.7,2.5,30.21,South,173,0.0,0.0,69,0.00,,,0.00,Wunderground v.1.15,2013-01-18 09:06:00,
2013-01-18 04:07:00,10.7,2.5,30.20,South,174,0.0,0.0,69,0.00,,,0.00,Wunderground v.1.15,2013-01-18 09:07:00,
2013-01-18 04:08:00,10.6,2.4,30.20,South,174,0.0,0.0,69,0.00,,,0.00,Wunderground v.1.15,2013-01-18 09:08:00,
2013-01-18 04:12:00,10.7,2.8,30.20,South,173,1.0,1.0,70,0.00,,,0.00,Wunderground v.1.15,2013-01-18 09:12:00,
2013-01-18 04:13:00,10.6,2.4,30.20,South,173,0.0,1.0,69,0.00,,,0.00,Wunderground v.1.15,2013-01-18 09:13:00,
2013-01-18 04:17:00,10.6,2.7,30.20,South,173,0.0,1.0,70,0.00,,,0.00,Wunderground v.1.15,2013-01-18 09:17:00,
2013-01-18 04:19:00,10.6,2.4,30.20,South,173,0.0,1.0,69,0.00,,,0.00,Wunderground v.1.15,2013-01-18 09:19:00,
2013-01-18 04:22:00,10.5,2.3,30.21,South,173,0.0,0.0,69,0.00,,,0.00,Wunderground v.1.15,2013-01-18 09:22:00,
2013-01-18 04:24:00,10.4,2.2,30.21,South,174,0.0,0.0,69,0.00,,,0.00,Wunderground v.1.15,2013-01-18 09:24:00,
2013-01-18 04:27:00,10.3,2.4,30.20,South,173,0.0,0.0,70,0.00,,,0.00,Wunderground v.1.15,2013-01-18 09:27:00,
2013-01-18 04:29:00,10.2,2.0,30.21,South,173,0.0,0.0,69,0.00,,,0.00,Wunderground v.1.15,2013-01-18 09:29:00,
2013-01-18 04:32:00,10.0,1.9,30.21,South,174,0.0,0.0,69,0.00,,,0.00,Wunderground v.1.15,2013-01-18 09:32:00,
2013-01-18 04:34:00,10.0,1.9,30.21,South,174,0.0,0.0,69,0.00,,,0.00,Wunderground v.1.15,2013-01-18 09:34:00,
2013-01-18 04:37:00,9.8,1.7,30.22,South,173,0.0,0.0,69,0.00,,,0.00,Wunderground v.1.15,2013-01-18 09:37:00,
2013-01-18 04:38:00,9.8,1.7,30.21,South,173,0.0,0.0,69,0.00,,,0.00,Wunderground v.1.15,2013-01-18 09:38:00,
2013-01-18 04:39:00,9.7,1.9,30.21,South,174,0.0,1.0,70,0.00,,,0.00,Wunderground v.1.15,2013-01-18 09:39:00,
2013-01-18 04:42:00,9.6,1.8,30.23,South,173,0.0,0.0,70,0.00,,,0.00,Wunderground v.1.15,2013-01-18 09:42:00,
2013-01-18 04:43:00,9.6,2.1,30.22,South,173,0.0,0.0,71,0.00,,,0.00,Wunderground v.1.15,2013-01-18 09:43:00,
2013-01-18 04:44:00,9.5,2.3,30.22,South,173,0.0,0.0,72,0.00,,,0.00,Wunderground v.1.15,2013-01-18 09:44:00,
2013-01-18 04:47:00,9.4,2.2,30.22,South,174,0.0,0.0,72,0.00,,,0.00,Wunderground v.1.15,2013-01-18 09:47:00,
2013-01-18 04:48:00,9.4,2.2,30.22,South,173,0.0,0.0,72,0.00,,,0.00,Wunderground v.1.15,2013-01-18 09:48:00,
2013-01-18 04:49:00,9.4,2.2,30.21,South,173,0.0,0.0,72,0.00,,,0.00,Wunderground v.1.15,2013-01-18 09:49:00,
2013-01-18 04:53:00,9.1,1.9,30.22,South,173,0.0,0.0,72,0.00,,,0.00,Wunderground v.1.15,2013-01-18 09:53:00,
2013-01-18 04:54:00,9.0,1.8,30.22,South,173,0.0,0.0,72,0.00,,,0.00,Wunderground v.1.15,2013-01-18 09:54:00,
2013-01-18 04:58:00,8.8,1.6,30.23,South,173,0.0,0.0,72,0.00,,,0.00,Wunderground v.1.15,2013-01-18 09:58:00,
2013-01-18 05:00:00,8.7,1.5,30.23,South,173,0.0,0.0,72,0.00,,,0.00,Wunderground v.1.15,2013-01-18 10:00:00,
2013-01-18 05:03:00,8.4,0.9,30.23,South,173,0.0,0.0,71,0.00,,,0.00,Wunderground v.1.15,2013-01-18 10:03:00,
2013-01-18 05:05:00,8.3,1.1,30.23,South,173,0.0,0.0,72,0.00,,,0.00,Wunderground v.1.15,2013-01-18 10:05:00,
2013-01-18 05:08:00,8.2,1.3,30.23,South,173,0.0,0.0,73,0.00,,,0.00,Wunderground v.1.15,2013-01-18 10:08:00,
2013-01-18 05:10:00,8.1,1.2,30.23,South,173,0.0,0.0,73,0.00,,,0.00,Wunderground v.1.15,2013-01-18 10:10:00,
2013-01-18 05:13:00,8.0,1.7,30.23,South,174,0.0,0.0,75,0.00,,,0.00,Wunderground v.1.15,2013-01-18 10:13:00,
2013-01-18 05:15:00,7.9,1.6,30.23,South,173,0.0,0.0,75,0.00,,,0.00,Wunderground v.1.15,2013-01-18 10:15:00,
2013-01-18 05:18:00,7.8,1.5,30.23,South,173,0.0,0.0,75,0.00,,,0.00,Wunderground v.1.15,2013-01-18 10:18:00,
2013-01-18 05:20:00,7.7,1.1,30.24,South,174,0.0,0.0,74,0.00,,,0.00,Wunderground v.1.15,2013-01-18 10:20:00,
2013-01-18 05:23:00,7.5,1.2,30.24,South,173,0.0,0.0,75,0.00,,,0.00,Wunderground v.1.15,2013-01-18 10:23:00,
2013-01-18 05:25:00,7.5,1.2,30.24,South,173,0.0,0.0,75,0.00,,,0.00,Wunderground v.1.15,2013-01-18 10:25:00,
2013-01-18 05:28:00,7.3,1.0,30.24,South,173,0.0,0.0,75,0.00,,,0.00,Wunderground v.1.15,2013-01-18 10:28:00,
2013-01-18 05:30:00,7.2,0.9,30.24,South,173,0.0,0.0,75,0.00,,,0.00,Wunderground v.1.15,2013-01-18 10:30:00,
2013-01-18 05:33:00,7.1,0.8,30.24,South,174,0.0,0.0,75,0.00,,,0.00,Wunderground v.1.15,2013-01-18 10:33:00,
2013-01-18 05:35:00,7.0,1.0,30.24,South,173,0.0,0.0,76,0.00,,,0.00,Wunderground v.1.15,2013-01-18 10:35:00,
2013-01-18 05:38:00,6.9,0.9,30.24,South,174,0.0,0.0,76,0.00,,,0.00,Wunderground v.1.15,2013-01-18 10:38:00,
2013-01-18 05:40:00,6.9,0.9,30.24,South,174,0.0,0.0,76,0.00,,,0.00,Wunderground v.1.15,2013-01-18 10:40:00,
2013-01-18 05:43:00,6.8,1.1,30.24,South,173,0.0,0.0,77,0.00,,,0.00,Wunderground v.1.15,2013-01-18 10:43:00,
2013-01-18 05:44:00,6.8,1.1,30.24,South,173,0.0,0.0,77,0.00,,,0.00,Wunderground v.1.15,2013-01-18 10:44:00,
2013-01-18 05:45:00,6.7,1.3,30.24,South,173,0.0,1.0,78,0.00,,,0.00,Wunderground v.1.15,2013-01-18 10:45:00,
2013-01-18 05:46:00,6.7,1.3,30.24,South,173,0.0,1.0,78,0.00,,,0.00,Wunderground v.1.15,2013-01-18 10:46:00,
2013-01-18 05:48:00,6.6,1.2,30.24,South,173,1.0,1.0,78,0.00,,,0.00,Wunderground v.1.15,2013-01-18 10:48:00,
2013-01-18 05:49:00,6.6,1.2,30.25,South,173,1.0,1.0,78,0.00,,,0.00,Wunderground v.1.15,2013-01-18 10:49:00,
2013-01-18 05:51:00,6.5,1.1,30.25,South,173,0.0,0.0,78,0.00,,,0.00,Wunderground v.1.15,2013-01-18 10:51:00,
2013-01-18 05:53:00,6.4,1.0,30.25,South,173,0.0,0.0,78,0.00,,,0.00,Wunderground v.1.15,2013-01-18 10:53:00,
2013-01-18 05:54:00,6.4,1.3,30.25,South,173,0.0,0.0,79,0.00,,,0.00,Wunderground v.1.15,2013-01-18 10:54:00,
2013-01-18 05:56:00,6.3,0.9,30.25,South,174,0.0,0.0,78,0.00,,,0.00,Wunderground v.1.15,2013-01-18 10:56:00,
2013-01-18 05:59:00,6.2,0.8,30.25,South,173,0.0,0.0,78,0.00,,,0.00,Wunderground v.1.15,2013-01-18 10:59:00,
2013-01-18 06:01:00,6.1,0.4,30.25,South,173,0.0,0.0,77,0.00,,,0.00,Wunderground v.1.15,2013-01-18 11:01:00,
2013-01-18 06:02:00,5.9,0.2,30.26,South,173,0.0,0.0,77,0.00,,,0.00,Wunderground v.1.15,2013-01-18 11:02:00,
2013-01-18 06:04:00,5.8,0.1,30.26,South,173,0.0,0.0,77,0.00,,,0.00,Wunderground v.1.15,2013-01-18 11:04:00,
2013-01-18 06:07:00,5.6,0.2,30.26,South,173,0.0,0.0,78,0.00,,,0.00,Wunderground v.1.15,2013-01-18 11:07:00,
2013-01-18 06:09:00,5.5,0.1,30.26,South,173,0.0,0.0,78,0.00,,,0.00,Wunderground v.1.15,2013-01-18 11:09:00,
2013-01-18 06:10:00,5.5,-0.1,30.26,South,173,0.0,0.0,77,0.00,,,0.00,Wunderground v.1.15,2013-01-18 11:10:00,
2013-01-18 06:12:00,5.4,-0.2,30.27,South,174,0.0,0.0,77,0.00,,,0.00,Wunderground v.1.15,2013-01-18 11:12:00,
2013-01-18 06:14:00,5.2,-0.4,30.27,South,173,0.0,0.0,77,0.00,,,0.00,Wunderground v.1.15,2013-01-18 11:14:00,
2013-01-18 06:15:00,5.2,-0.2,30.27,South,173,0.0,0.0,78,0.00,,,0.00,Wunderground v.1.15,2013-01-18 11:15:00,
2013-01-18 06:17:00,5.2,-0.2,30.27,South,173,0.0,0.0,78,0.00,,,0.00,Wunderground v.1.15,2013-01-18 11:17:00,
2013-01-18 06:19:00,5.1,-0.3,30.27,South,173,0.0,0.0,78,0.00,,,0.00,Wunderground v.1.15,2013-01-18 11:19:00,
2013-01-18 06:20:00,5.1,-0.5,30.28,South,173,0.0,0.0,77,0.00,,,0.00,Wunderground v.1.15,2013-01-18 11:20:00,
2013-01-18 06:22:00,5.0,-0.6,30.28,South,173,0.0,0.0,77,0.00,,,0.00,Wunderground v.1.15,2013-01-18 11:22:00,
2013-01-18 06:24:00,5.0,-0.4,30.28,South,173,0.0,0.0,78,0.00,,,0.00,Wunderground v.1.15,2013-01-18 11:24:00,
2013-01-18 06:25:00,5.0,-0.4,30.28,South,174,0.0,0.0,78,0.00,,,0.00,Wunderground v.1.15,2013-01-18 11:25:00,
2013-01-18 06:27:00,4.9,-0.2,30.28,South,173,0.0,0.0,79,0.00,,,0.00,Wunderground v.1.15,2013-01-18 11:27:00,
2013-01-18 06:28:00,4.9,-0.2,30.28,South,173,0.0,0.0,79,0.00,,,0.00,Wunderground v.1.15,2013-01-18 11:28:00,
2013-01-18 06:29:00,4.9,-0.5,30.28,South,174,0.0,0.0,78,0.00,,,0.00,Wunderground v.1.15,2013-01-18 11:29:00,
2013-01-18 06:30:00,4.8,-0.3,30.28,South,173,0.0,0.0,79,0.00,,,0.00,Wunderground v.1.15,2013-01-18 11:30:00,
2013-01-18 06:32:00,4.7,-0.4,30.29,South,173,0.0,0.0,79,0.00,,,0.00,Wunderground v.1.15,2013-01-18 11:32:00,
2013-01-18 06:33:00,4.7,-0.7,30.29,South,173,0.0,0.0,78,0.00,,,0.00,Wunderground v.1.15,2013-01-18 11:33:00,
2013-01-18 06:34:00,4.7,-0.7,30.29,South,173,0.0,0.0,78,0.00,,,0.00,Wunderground v.1.15,2013-01-18 11:34:00,
2013-01-18 06:36:00,4.7,-0.4,30.29,South,173,0.0,0.0,79,0.00,,,0.00,Wunderground v.1.15,2013-01-18 11:36:00,
2013-01-18 06:37:00,4.6,-0.5,30.29,South,174,0.0,0.0,79,0.00,,,0.00,Wunderground v.1.15,2013-01-18 11:37:00,
2013-01-18 06:38:00,4.6,-0.5,30.29,South,173,0.0,0.0,79,0.00,,,0.00,Wunderground v.1.15,2013-01-18 11:38:00,
2013-01-18 06:40:00,4.6,-0.5,30.29,South,173,0.0,0.0,79,0.00,,,0.00,Wunderground v.1.15,2013-01-18 11:40:00,
2013-01-18 06:41:00,4.5,-0.6,30.29,South,174,0.0,0.0,79,0.00,,,0.00,Wunderground v.1.15,2013-01-18 11:41:00,
2013-01-18 06:42:00,4.4,-0.7,30.29,South,173,0.0,0.0,79,0.00,,,0.00,Wunderground v.1.15,2013-01-18 11:42:00,
2013-01-18 06:43:00,4.4,-0.7,30.29,South,174,0.0,0.0,79,0.00,,,0.00,Wunderground v.1.15,2013-01-18 11:43:00,
2013-01-18 06:45:00,4.4,-0.7,30.30,South,173,0.0,0.0,79,0.00,,,0.00,Wunderground v.1.15,2013-01-18 11:45:00,
2013-01-18 06:46:00,4.4,-0.4,30.30,South,173,0.0,0.0,80,0.00,,,0.00,Wunderground v.1.15,2013-01-18 11:46:00,
2013-01-18 06:47:00,4.4,-0.4,30.30,South,173,0.0,0.0,80,0.00,,,0.00,Wunderground v.1.15,2013-01-18 11:47:00,
2013-01-18 06:48:00,4.3,-0.5,30.30,South,173,0.0,0.0,80,0.00,,,0.00,Wunderground v.1.15,2013-01-18 11:48:00,
2013-01-18 06:50:00,4.2,-0.6,30.30,South,174,0.0,0.0,80,0.00,,,0.00,Wunderground v.1.15,2013-01-18 11:50:00,
2013-01-18 06:51:00,4.2,-0.6,30.30,South,173,0.0,0.0,80,0.00,,,0.00,Wunderground v.1.15,2013-01-18 11:51:00,
2013-01-18 06:53:00,4.1,-0.7,30.30,South,173,0.0,0.0,80,0.00,,,0.00,Wunderground v.1.15,2013-01-18 11:53:00,
2013-01-18 06:55:00,4.0,-0.8,30.31,South,173,0.0,0.0,80,0.00,,,0.00,Wunderground v.1.15,2013-01-18 11:55:00,
2013-01-18 06:56:00,4.0,-0.8,30.31,South,174,0.0,0.0,80,0.00,,,0.00,Wunderground v.1.15,2013-01-18 11:56:00,
2013-01-18 06:58:00,3.9,-0.9,30.31,South,173,0.0,0.0,80,0.00,,,0.00,Wunderground v.1.15,2013-01-18 11:58:00,
2013-01-18 07:01:00,3.9,-0.6,30.31,South,173,0.0,0.0,81,0.00,,,0.00,Wunderground v.1.15,2013-01-18 12:01:00,
2013-01-18 07:02:00,3.9,-0.6,30.31,South,174,0.0,0.0,81,0.00,,,0.00,Wunderground v.1.15,2013-01-18 12:02:00,
2013-01-18 07:03:00,3.8,-0.7,30.31,South,173,0.0,0.0,81,0.00,,,0.00,Wunderground v.1.15,2013-01-18 12:03:00,
2013-01-18 07:04:00,3.8,-0.7,30.31,South,174,0.0,0.0,81,0.00,,,0.00,Wunderground v.1.15,2013-01-18 12:04:00,
2013-01-18 07:07:00,3.7,-0.8,30.31,South,174,0.0,0.0,81,0.00,,,0.00,Wunderground v.1.15,2013-01-18 12:07:00,
2013-01-18 07:08:00,3.7,-0.8,30.31,South,173,0.0,0.0,81,0.00,,,0.00,Wunderground v.1.15,2013-01-18 12:08:00,
2013-01-18 07:09:00,3.6,-0.9,30.31,South,173,0.0,0.0,81,0.00,,,0.00,Wunderground v.1.15,2013-01-18 12:09:00,
2013-01-18 07:12:00,3.5,-1.0,30.32,South,173,0.0,0.0,81,0.00,,,0.00,Wunderground v.1.15,2013-01-18 12:12:00,
2013-01-18 07:13:00,3.5,-1.0,30.32,South,173,0.0,0.0,81,0.00,,,0.00,Wunderground v.1.15,2013-01-18 12:13:00,
2013-01-18 07:14:00,3.5,-1.0,30.32,South,173,0.0,0.0,81,0.00,,,0.00,Wunderground v.1.15,2013-01-18 12:14:00,
2013-01-18 07:17:00,3.5,-0.8,30.32,South,173,0.0,0.0,82,0.00,,,0.00,Wunderground v.1.15,2013-01-18 12:17:00,
2013-01-18 07:18:00,3.5,-0.8,30.32,South,173,0.0,0.0,82,0.00,,,0.00,Wunderground v.1.15,2013-01-18 12:18:00,
2013-01-18 07:19:00,3.4,-1.1,30.32,South,173,0.0,0.0,81,0.00,,,0.00,Wunderground v.1.15,2013-01-18 12:19:00,
2013-01-18 07:22:00,3.3,-1.2,30.32,South,173,0.0,0.0,81,0.00,,,0.00,Wunderground v.1.15,2013-01-18 12:22:00,
2013-01-18 07:23:00,3.3,-1.2,30.32,South,173,0.0,0.0,81,0.00,,,0.00,Wunderground v.1.15,2013-01-18 12:23:00,
2013-01-18 07:24:00,3.3,-1.2,30.32,South,173,0.0,0.0,81,0.00,,,0.00,Wunderground v.1.15,2013-01-18 12:24:00,
2013-01-18 07:27:00,3.3,-1.2,30.33,South,173,0.0,0.0,81,0.00,,,0.00,Wunderground v.1.15,2013-01-18 12:27:00,
2013-01-18 07:28:00,3.3,-1.5,30.33,South,173,0.0,0.0,80,0.00,,,0.00,Wunderground v.1.15,2013-01-18 12:28:00,
2013-01-18 07:29:00,3.3,-1.2,30.33,South,173,0.0,0.0,81,0.00,,,0.00,Wunderground v.1.15,2013-01-18 12:29:00,
2013-01-18 07:32:00,3.3,-1.2,30.32,South,173,0.0,0.0,81,0.00,,,0.00,Wunderground v.1.15,2013-01-18 12:32:00,
2013-01-18 07:33:00,3.3,-1.2,30.33,South,173,0.0,0.0,81,0.00,,,0.00,Wunderground v.1.15,2013-01-18 12:33:00,
2013-01-18 07:34:00,3.3,-1.2,30.33,South,173,0.0,0.0,81,0.00,,,0.00,Wunderground v.1.15,2013-01-18 12:34:00,
2013-01-18 07:37:00,3.2,-1.6,30.33,South,173,0.0,0.0,80,0.00,,,0.00,Wunderground v.1.15,2013-01-18 12:37:00,
2013-01-18 07:38:00,3.2,-1.6,30.33,South,173,0.0,0.0,80,0.00,,,0.00,Wunderground v.1.15,2013-01-18 12:38:00,
2013-01-18 07:40:00,3.1,-1.7,30.33,South,173,0.0,0.0,80,0.00,,,0.00,Wunderground v.1.15,2013-01-18 12:40:00,
2013-01-18 07:43:00,3.2,-1.6,30.33,South,173,0.0,0.0,80,0.00,,,0.00,Wunderground v.1.15,2013-01-18 12:43:00,
2013-01-18 07:45:00,3.1,-1.4,30.33,South,173,0.0,0.0,81,0.00,,,0.00,Wunderground v.1.15,2013-01-18 12:45:00,
2013-01-18 07:48:00,3.2,-1.3,30.33,South,174,0.0,0.0,81,0.00,,,0.00,Wunderground v.1.15,2013-01-18 12:48:00,
2013-01-18 07:50:00,3.2,-1.3,30.34,South,173,0.0,0.0,81,0.00,,,0.00,Wunderground v.1.15,2013-01-18 12:50:00,
2013-01-18 07:53:00,3.2,-1.1,30.34,South,173,1.0,1.0,82,0.00,,,0.00,Wunderground v.1.15,2013-01-18 12:53:00,
2013-01-18 07:55:00,3.2,-1.1,30.34,South,173,0.0,2.0,82,0.00,,,0.00,Wunderground v.1.15,2013-01-18 12:55:00,
2013-01-18 07:58:00,3.3,-1.0,30.34,South,173,0.0,2.0,82,0.00,,,0.00,Wunderground v.1.15,2013-01-18 12:58:00,
2013-01-18 08:01:00,3.4,-0.9,30.34,South,173,0.0,0.0,82,0.00,,,0.00,Wunderground v.1.15,2013-01-18 13:01:00,
2013-01-18 08:03:00,3.5,-0.8,30.34,South,173,0.0,0.0,82,0.00,,,0.00,Wunderground v.1.15,2013-01-18 13:03:00,
2013-01-18 08:04:00,3.5,-0.8,30.34,South,173,0.0,0.0,82,0.00,,,0.00,Wunderground v.1.15,2013-01-18 13:04:00,
2013-01-18 08:06:00,3.8,-0.5,30.35,South,173,0.0,0.0,82,0.00,,,0.00,Wunderground v.1.15,2013-01-18 13:06:00,
2013-01-18 08:09:00,3.9,-0.4,30.35,South,173,3.0,3.0,82,0.00,,,0.00,Wunderground v.1.15,2013-01-18 13:09:00,
2013-01-18 08:12:00,4.1,-0.2,30.35,South,173,3.0,4.0,82,0.00,,,0.00,Wunderground v.1.15,2013-01-18 13:12:00,
2013-01-18 08:14:00,4.3,-0.2,30.35,South,173,1.0,4.0,81,0.00,,,0.00,Wunderground v.1.15,2013-01-18 13:14:00,
2013-01-18 08:17:00,4.6,0.1,30.35,South,173,0.0,4.0,81,0.00,,,0.00,Wunderground v.1.15,2013-01-18 13:17:00,
2013-01-18 08:19:00,4.8,0.0,30.35,South,173,0.0,4.0,80,0.00,,,0.00,Wunderground v.1.15,2013-01-18 13:19:00,
2013-01-18 08:22:00,5.0,0.2,30.35,South,173,1.0,1.0,80,0.00,,,0.00,Wunderground v.1.15,2013-01-18 13:22:00,
2013-01-18 08:24:00,5.2,0.4,30.35,South,173,0.0,1.0,80,0.00,,,0.00,Wunderground v.1.15,2013-01-18 13:24:00,
2013-01-18 08:27:00,5.5,0.4,30.35,South,173,0.0,1.0,79,0.00,,,0.00,Wunderground v.1.15,2013-01-18 13:27:00,
2013-01-18 08:29:00,5.7,-0.2,30.35,South,173,1.0,1.0,76,0.00,,,0.00,Wunderground v.1.15,2013-01-18 13:29:00,
2013-01-18 08:32:00,6.1,-0.7,30.35,South,173,0.0,1.0,73,0.00,,,0.00,Wunderground v.1.15,2013-01-18 13:32:00,
2013-01-18 08:34:00,6.3,-1.4,30.35,South,173,0.0,3.0,70,0.00,,,0.00,Wunderground v.1.15,2013-01-18 13:34:00,
2013-01-18 08:37:00,6.6,-1.4,30.36,South,173,0.0,3.0,69,0.00,,,0.00,Wunderground v.1.15,2013-01-18 13:37:00,
2013-01-18 08:39:00,6.7,-1.3,30.36,South,173,1.0,3.0,69,0.00,,,0.00,Wunderground v.1.15,2013-01-18 13:39:00,
2013-01-18 08:40:00,6.8,-1.2,30.35,South,173,1.0,1.0,69,0.00,,,0.00,Wunderground v.1.15,2013-01-18 13:40:00,
2013-01-18 08:42:00,6.9,-1.4,30.36,South,174,1.0,2.0,68,0.00,,,0.00,Wunderground v.1.15,2013-01-18 13:42:00,
2013-01-18 08:44:00,6.9,-1.4,30.36,South,174,3.0,3.0,68,0.00,,,0.00,Wunderground v.1.15,2013-01-18 13:44:00,
2013-01-18 08:45:00,7.0,-1.7,30.36,South,173,2.0,3.0,67,0.00,,,0.00,Wunderground v.1.15,2013-01-18 13:45:00,
2013-01-18 08:47:00,7.0,-2.0,30.36,South,173,1.0,3.0,66,0.00,,,0.00,Wunderground v.1.15,2013-01-18 13:47:00,
2013-01-18 08:49:00,7.1,-1.9,30.36,South,174,2.0,3.0,66,0.00,,,0.00,Wunderground v.1.15,2013-01-18 13:49:00,
2013-01-18 08:50:00,7.2,-1.8,30.36,South,173,3.0,3.0,66,0.00,,,0.00,Wunderground v.1.15,2013-01-18 13:50:00,
2013-01-18 08:52:00,7.3,-2.0,30.36,South,173,1.0,5.0,65,0.00,,,0.00,Wunderground v.1.15,2013-01-18 13:52:00,
2013-01-18 08:54:00,7.3,-2.0,30.36,South,173,2.0,5.0,65,0.00,,,0.00,Wunderground v.1.15,2013-01-18 13:54:00,
2013-01-18 08:55:00,7.3,-2.0,30.36,South,173,2.0,5.0,65,0.00,,,0.00,Wunderground v.1.15,2013-01-18 13:55:00,
2013-01-18 08:57:00,7.5,-2.1,30.37,South,173,3.0,5.0,64,0.00,,,0.00,Wunderground v.1.15,2013-01-18 13:57:00,
2013-01-18 08:59:00,7.7,-1.6,30.37,South,173,1.0,5.0,65,0.00,,,0.00,Wunderground v.1.15,2013-01-18 13:59:00,
2013-01-18 09:00:00,7.7,-1.6,30.37,South,173,1.0,2.0,65,0.00,,,0.00,Wunderground v.1.15,2013-01-18 14:00:00,
2013-01-18 09:02:00,7.7,-1.6,30.37,South,173,1.0,2.0,65,0.00,,,0.00,Wunderground v.1.15,2013-01-18 14:02:00,
2013-01-18 09:04:00,8.0,-2.0,30.37,South,174,1.0,5.0,63,0.00,,,0.00,Wunderground v.1.15,2013-01-18 14:04:00,
2013-01-18 09:05:00,8.0,-2.0,30.37,South,173,1.0,5.0,63,0.00,,,0.00,Wunderground v.1.15,2013-01-18 14:05:00,
2013-01-18 09:07:00,8.2,-2.2,30.37,South,173,4.0,5.0,62,0.00,,,0.00,Wunderground v.1.15,2013-01-18 14:07:00,
2013-01-18 09:08:00,8.2,-2.2,30.37,South,173,2.0,5.0,62,0.00,,,0.00,Wunderground v.1.15,2013-01-18 14:08:00,
2013-01-18 09:09:00,8.3,-2.1,30.37,South,173,2.0,5.0,62,0.00,,,0.00,Wunderground v.1.15,2013-01-18 14:09:00,
2013-01-18 09:10:00,8.3,-2.1,30.37,South,173,2.0,4.0,62,0.00,,,0.00,Wunderground v.1.15,2013-01-18 14:10:00,
2013-01-18 09:12:00,8.4,-2.7,30.37,South,173,2.0,7.0,60,0.00,,,0.00,Wunderground v.1.15,2013-01-18 14:12:00,
2013-01-18 09:13:00,8.4,-2.7,30.37,South,173,2.0,7.0,60,0.00,,,0.00,Wunderground v.1.15,2013-01-18 14:13:00,
2013-01-18 09:15:00,8.5,-2.2,30.37,South,173,2.0,7.0,61,0.00,,,0.00,Wunderground v.1.15,2013-01-18 14:15:00,
2013-01-18 09:18:00,8.7,-2.4,30.37,South,173,3.0,7.0,60,0.00,,,0.00,Wunderground v.1.15,2013-01-18 14:18:00,
2013-01-18 09:20:00,8.7,-2.4,30.37,South,173,0.0,2.0,60,0.00,,,0.00,Wunderground v.1.15,2013-01-18 14:20:00,
2013-01-18 09:23:00,8.9,-2.2,30.38,South,173,1.0,5.0,60,0.00,,,0.00,Wunderground v.1.15,2013-01-18 14:23:00,
2013-01-18 09:25:00,9.1,-2.0,30.38,South,174,1.0,5.0,60,0.00,,,0.00,Wunderground v.1.15,2013-01-18 14:25:00,
2013-01-18 09:28:00,9.4,-2.1,30.37,South,173,1.0,7.0,59,0.00,,,0.00,Wunderground v.1.15,2013-01-18 14:28:00,
2013-01-18 09:30:00,9.4,-2.4,30.38,South,173,3.0,3.0,58,0.00,,,0.00,Wunderground v.1.15,2013-01-18 14:30:00,
2013-01-18 09:33:00,9.4,-2.4,30.38,South,174,0.0,4.0,58,0.00,,,0.00,Wunderground v.1.15,2013-01-18 14:33:00,
2013-01-18 09:35:00,9.4,-2.1,30.38,South,173,4.0,6.0,59,0.00,,,0.00,Wunderground v.1.15,2013-01-18 14:35:00,
2013-01-18 09:38:00,9.5,-2.3,30.38,South,173,2.0,6.0,58,0.00,,,0.00,Wunderground v.1.15,2013-01-18 14:38:00,
2013-01-18 09:40:00,9.6,-1.9,30.38,South,173,1.0,2.0,59,0.00,,,0.00,Wunderground v.1.15,2013-01-18 14:40:00,
2013-01-18 09:43:00,9.7,-2.1,30.38,South,173,1.0,6.0,58,0.00,,,0.00,Wunderground v.1.15,2013-01-18 14:43:00,
2013-01-18 09:44:00,9.8,-2.0,30.38,South,173,1.0,6.0,58,0.00,,,0.00,Wunderground v.1.15,2013-01-18 14:44:00,
2013-01-18 09:45:00,9.8,-2.0,30.38,South,173,3.0,6.0,58,0.00,,,0.00,Wunderground v.1.15,2013-01-18 14:45:00,
2013-01-18 09:48:00,10.1,-1.8,30.38,South,173,1.0,6.0,58,0.00,,,0.00,Wunderground v.1.15,2013-01-18 14:48:00,
2013-01-18 09:49:00,10.1,-1.8,30.38,South,173,1.0,6.0,58,0.00,,,0.00,Wunderground v.1.15,2013-01-18 14:49:00,
2013-01-18 09:50:00,10.2,-2.0,30.38,South,173,2.0,4.0,57,0.00,,,0.00,Wunderground v.1.15,2013-01-18 14:50:00,
2013-01-18 09:53:00,10.5,-1.4,30.38,South,173,1.0,4.0,58,0.00,,,0.00,Wunderground v.1.15,2013-01-18 14:53:00,
2013-01-18 09:54:00,10.6,-1.3,30.38,South,173,1.0,4.0,58,0.00,,,0.00,Wunderground v.1.15,2013-01-18 14:54:00,
2013-01-18 09:55:00,10.7,-1.2,30.38,South,174,1.0,4.0,58,0.00,,,0.00,Wunderground v.1.15,2013-01-18 14:55:00,
2013-01-18 09:58:00,11.1,-1.6,30.38,South,173,0.0,4.0,56,0.00,,,0.00,Wunderground v.1.15,2013-01-18 14:58:00,
2013-01-18 09:59:00,11.2,-1.5,30.38,South,173,0.0,4.0,56,0.00,,,0.00,Wunderground v.1.15,2013-01-18 14:59:00,
2013-01-18 10:01:00,11.3,-1.0,30.39,South,173,0.0,1.0,57,0.00,,,0.00,Wunderground v.1.15,2013-01-18 15:01:00,
2013-01-18 10:03:00,11.6,-1.5,30.38,South,173,3.0,7.0,55,0.00,,,0.00,Wunderground v.1.15,2013-01-18 15:03:00,
2013-01-18 10:04:00,11.6,-1.9,30.38,South,173,3.0,7.0,54,0.00,,,0.00,Wunderground v.1.15,2013-01-18 15:04:00,
2013-01-18 10:06:00,11.3,-2.9,30.38,South,173,2.0,8.0,52,0.00,,,0.00,Wunderground v.1.15,2013-01-18 15:06:00,
2013-01-18 10:08:00,11.3,-2.1,30.39,South,174,0.0,8.0,54,0.00,,,0.00,Wunderground v.1.15,2013-01-18 15:08:00,
2013-01-18 10:09:00,11.4,-1.3,30.39,South,173,3.0,8.0,56,0.00,,,0.00,Wunderground v.1.15,2013-01-18 15:09:00,
2013-01-18 10:11:00,11.6,-1.1,30.39,South,173,1.0,4.0,56,0.00,,,0.00,Wunderground v.1.15,2013-01-18 15:11:00,
2013-01-18 10:12:00,11.6,-1.1,30.39,South,174,1.0,4.0,56,0.00,,,0.00,Wunderground v.1.15,2013-01-18 15:12:00,
2013-01-18 10:14:00,11.9,-0.8,30.39,South,173,1.0,4.0,56,0.00,,,0.00,Wunderground v.1.15,2013-01-18 15:14:00,
2013-01-18 10:17:00,12.1,-1.0,30.38,South,173,3.0,5.0,55,0.00,,,0.00,Wunderground v.1.15,2013-01-18 15:17:00,
2013-01-18 10:19:00,12.0,-1.5,30.38,South,174,2.0,8.0,54,0.00,,,0.00,Wunderground v.1.15,2013-01-18 15:19:00,
2013-01-18 10:22:00,12.1,-1.8,30.38,South,173,1.0,3.0,53,0.00,,,0.00,Wunderground v.1.15,2013-01-18 15:22:00,
2013-01-18 10:24:00,12.2,-1.3,30.39,South,174,0.0,4.0,54,0.00,,,0.00,Wunderground v.1.15,2013-01-18 15:24:00,
2013-01-18 10:27:00,12.4,-1.5,30.39,South,174,3.0,4.0,53,0.00,,,0.00,Wunderground v.1.15,2013-01-18 15:27:00,
2013-01-18 10:29:00,12.4,-1.9,30.39,South,172,4.0,4.0,52,0.00,,,0.00,Wunderground v.1.15,2013-01-18 15:29:00,
2013-01-18 10:32:00,12.5,-2.2,30.39,South,174,1.0,7.0,51,0.00,,,0.00,Wunderground v.1.15,2013-01-18 15:32:00,
2013-01-18 10:34:00,12.5,-1.8,30.39,South,173,4.0,7.0,52,0.00,,,0.00,Wunderground v.1.15,2013-01-18 15:34:00,
2013-01-18 10:37:00,12.7,-0.4,30.38,South,174,0.0,7.0,55,0.00,,,0.00,Wunderground v.1.15,2013-01-18 15:37:00,
2013-01-18 10:39:00,12.9,-0.3,30.38,South,174,2.0,7.0,55,0.00,,,0.00,Wunderground v.1.15,2013-01-18 15:39:00,
2013-01-18 10:41:00,13.0,-0.6,30.38,South,173,1.0,2.0,54,0.00,,,0.00,Wunderground v.1.15,2013-01-18 15:41:00,
2013-01-18 10:42:00,13.1,-0.9,30.39,South,173,1.0,4.0,53,0.00,,,0.00,Wunderground v.1.15,2013-01-18 15:42:00,
2013-01-18 10:45:00,13.4,-1.4,30.39,South,174,1.0,4.0,51,0.00,,,0.00,Wunderground v.1.15,2013-01-18 15:45:00,
2013-01-18 10:46:00,13.4,-1.4,30.39,South,173,1.0,4.0,51,0.00,,,0.00,Wunderground v.1.15,2013-01-18 15:46:00,
2013-01-18 10:47:00,13.5,-1.3,30.39,South,174,2.0,5.0,51,0.00,,,0.00,Wunderground v.1.15,2013-01-18 15:47:00,
2013-01-18 10:50:00,13.7,-0.3,30.39,South,172,0.0,2.0,53,0.00,,,0.00,Wunderground v.1.15,2013-01-18 15:50:00,
2013-01-18 10:51:00,13.8,-0.6,30.39,South,174,2.0,2.0,52,0.00,,,0.00,Wunderground v.1.15,2013-01-18 15:51:00,
2013-01-18 10:52:00,13.9,-0.5,30.39,South,174,1.0,4.0,52,0.00,,,0.00,Wunderground v.1.15,2013-01-18 15:52:00,
2013-01-18 10:55:00,14.1,-0.7,30.39,South,173,1.0,4.0,51,0.00,,,0.00,Wunderground v.1.15,2013-01-18 15:55:00,
2013-01-18 10:56:00,14.1,-0.3,30.39,South,173,2.0,4.0,52,0.00,,,0.00,Wunderground v.1.15,2013-01-18 15:56:00,
2013-01-18 10:57:00,14.2,-0.6,30.38,South,172,2.0,4.0,51,0.00,,,0.00,Wunderground v.1.15,2013-01-18 15:57:00,
2013-01-18 11:00:00,14.4,-0.5,30.38,South,172,1.0,1.0,51,0.00,,,0.00,Wunderground v.1.15,2013-01-18 16:00:00,
2013-01-18 11:01:00,14.4,-0.5,30.38,South,172,2.0,2.0,51,0.00,,,0.00,Wunderground v.1.15,2013-01-18 16:01:00,
2013-01-18 11:02:00,14.6,-0.3,30.38,South,172,2.0,3.0,51,0.00,,,0.00,Wunderground v.1.15,2013-01-18 16:02:00,
2013-01-18 11:05:00,14.7,0.2,30.38,South,172,2.0,4.0,52,0.00,,,0.00,Wunderground v.1.15,2013-01-18 16:05:00,
2013-01-18 11:06:00,14.7,-1.0,30.38,South,173,0.0,5.0,49,0.00,,,0.00,Wunderground v.1.15,2013-01-18 16:06:00,
2013-01-18 11:08:00,14.7,-1.0,30.38,South,172,1.0,5.0,49,0.00,,,0.00,Wunderground v.1.15,2013-01-18 16:08:00,
2013-01-18 11:10:00,14.7,-0.6,30.38,South,174,4.0,7.0,50,0.00,,,0.00,Wunderground v.1.15,2013-01-18 16:10:00,
2013-01-18 11:12:00,14.7,-1.0,30.38,South,173,6.0,7.0,49,0.00,,,0.00,Wunderground v.1.15,2013-01-18 16:12:00,
2013-01-18 11:13:00,14.6,-1.1,30.38,South,173,4.0,7.0,49,0.00,,,0.00,Wunderground v.1.15,2013-01-18 16:13:00,
2013-01-18 11:15:00,14.6,-0.7,30.38,South,174,2.0,7.0,50,0.00,,,0.00,Wunderground v.1.15,2013-01-18 16:15:00,
2013-01-18 11:17:00,14.7,-0.6,30.38,South,173,4.0,7.0,50,0.00,,,0.00,Wunderground v.1.15,2013-01-18 16:17:00,
2013-01-18 11:18:00,14.7,-1.0,30.38,South,174,3.0,7.0,49,0.00,,,0.00,Wunderground v.1.15,2013-01-18 16:18:00,
2013-01-18 11:20:00,14.8,-0.9,30.38,South,174,2.0,3.0,49,0.00,,,0.00,Wunderground v.1.15,2013-01-18 16:20:00,
2013-01-18 11:22:00,15.0,-0.3,30.38,South,173,1.0,3.0,50,0.00,,,0.00,Wunderground v.1.15,2013-01-18 16:22:00,
2013-01-18 11:23:00,15.1,0.2,30.38,South,173,3.0,5.0,51,0.00,,,0.00,Wunderground v.1.15,2013-01-18 16:23:00,
2013-01-18 11:26:00,15.2,-1.0,30.38,South,174,1.0,7.0,48,0.00,,,0.00,Wunderground v.1.15,2013-01-18 16:26:00,
2013-01-18 11:27:00,15.2,-1.0,30.38,South,173,4.0,7.0,48,0.00,,,0.00,Wunderground v.1.15,2013-01-18 16:27:00,
2013-01-18 11:28:00,15.2,-1.0,30.37,South,173,2.0,7.0,48,0.00,,,0.00,Wunderground v.1.15,2013-01-18 16:28:00,
2013-01-18 11:29:00,15.3,-0.5,30.37,South,173,2.0,7.0,49,0.00,,,0.00,Wunderground v.1.15,2013-01-18 16:29:00,
2013-01-18 11:31:00,15.5,0.1,30.38,South,173,0.0,2.0,50,0.00,,,0.00,Wunderground v.1.15,2013-01-18 16:31:00,
2013-01-18 11:32:00,15.7,0.3,30.38,South,174,2.0,3.0,50,0.00,,,0.00,Wunderground v.1.15,2013-01-18 16:32:00,
2013-01-18 11:33:00,15.8,0.4,30.37,South,174,5.0,6.0,50,0.00,,,0.00,Wunderground v.1.15,2013-01-18 16:33:00,
2013-01-18 11:34:00,15.8,-0.9,30.37,South,174,4.0,8.0,47,0.00,,,0.00,Wunderground v.1.15,2013-01-18 16:34:00,
2013-01-18 11:36:00,15.7,-1.0,30.37,South,173,5.0,8.0,47,0.00,,,0.00,Wunderground v.1.15,2013-01-18 16:36:00,
2013-01-18 11:38:00,15.6,-1.5,30.37,South,174,2.0,8.0,46,0.00,,,0.00,Wunderground v.1.15,2013-01-18 16:38:00,
2013-01-18 11:39:00,15.6,-1.1,30.37,South,172,2.0,8.0,47,0.00,,,0.00,Wunderground v.1.15,2013-01-18 16:39:00,
2013-01-18 11:41:00,15.8,0.0,30.37,South,172,3.0,5.0,49,0.00,,,0.00,Wunderground v.1.15,2013-01-18 16:41:00,
2013-01-18 11:43:00,15.9,-0.4,30.37,South,172,1.0,6.0,48,0.00,,,0.00,Wunderground v.1.15,2013-01-18 16:43:00,
2013-01-18 11:44:00,16.0,-0.7,30.37,South,173,3.0,6.0,47,0.00,,,0.00,Wunderground v.1.15,2013-01-18 16:44:00,
2013-01-18 11:46:00,15.9,-1.3,30.37,South,174,4.0,9.0,46,0.00,,,0.00,Wunderground v.1.15,2013-01-18 16:46:00,
2013-01-18 11:48:00,15.8,-1.4,30.37,South,172,1.0,9.0,46,0.00,,,0.00,Wunderground v.1.15,2013-01-18 16:48:00,
2013-01-18 11:49:00,15.9,-0.8,30.37,South,172,0.0,9.0,47,0.00,,,0.00,Wunderground v.1.15,2013-01-18 16:49:00,
2013-01-18 11:52:00,16.3,0.0,30.37,South,172,4.0,4.0,48,0.00,,,0.00,Wunderground v.1.15,2013-01-18 16:52:00,
2013-01-18 11:53:00,16.5,0.2,30.37,South,172,3.0,5.0,48,0.00,,,0.00,Wunderground v.1.15,2013-01-18 16:53:00,
2013-01-18 11:54:00,16.6,0.3,30.37,South,172,2.0,5.0,48,0.00,,,0.00,Wunderground v.1.15,2013-01-18 16:54:00,
2013-01-18 11:57:00,16.7,0.4,30.37,South,172,1.0,5.0,48,0.00,,,0.00,Wunderground v.1.15,2013-01-18 16:57:00,
2013-01-18 11:58:00,16.9,0.6,30.37,South,172,3.0,5.0,48,0.00,,,0.00,Wunderground v.1.15,2013-01-18 16:58:00,
2013-01-18 11:59:00,17.0,0.2,30.37,South,172,0.0,5.0,47,0.00,,,0.00,Wunderground v.1.15,2013-01-18 16:59:00,
2013-01-18 12:00:00,17.0,0.2,30.37,South,172,1.0,2.0,47,0.00,,,0.00,Wunderground v.1.15,2013-01-18 17:00:00,
2013-01-18 12:02:00,17.4,1.0,30.37,South,172,3.0,3.0,48,0.00,,,0.00,Wunderground v.1.15,2013-01-18 17:02:00,
2013-01-18 12:03:00,17.5,1.6,30.37,South,172,2.0,4.0,49,0.00,,,0.00,Wunderground v.1.15,2013-01-18 17:03:00,
2013-01-18 12:04:00,17.7,1.3,30.38,South,172,0.0,4.0,48,0.00,,,0.00,Wunderground v.1.15,2013-01-18 17:04:00,
2013-01-18 12:05:00,17.7,1.3,30.38,South,172,0.0,4.0,48,0.00,,,0.00,Wunderground v.1.15,2013-01-18 17:05:00,
2013-01-18 12:08:00,18.2,1.3,30.38,South,172,1.0,4.0,47,0.00,,,0.00,Wunderground v.1.15,2013-01-18 17:08:00,
2013-01-18 12:10:00,18.3,0.5,30.38,South,172,2.0,3.0,45,0.00,,,0.00,Wunderground v.1.15,2013-01-18 17:10:00,
2013-01-18 12:13:00,18.5,1.1,30.38,South,172,2.0,5.0,46,0.00,,,0.00,Wunderground v.1.15,2013-01-18 17:13:00,
2013-01-18 12:15:00,18.4,0.6,30.37,South,172,2.0,9.0,45,0.00,,,0.00,Wunderground v.1.15,2013-01-18 17:15:00,
2013-01-18 12:18:00,18.2,0.9,30.37,South,172,3.0,9.0,46,0.00,,,0.00,Wunderground v.1.15,2013-01-18 17:18:00,
2013-01-18 12:20:00,18.1,0.8,30.37,South,172,4.0,5.0,46,0.00,,,0.00,Wunderground v.1.15,2013-01-18 17:20:00,
2013-01-18 12:23:00,18.1,0.3,30.38,South,172,1.0,5.0,45,0.00,,,0.00,Wunderground v.1.15,2013-01-18 17:23:00,
2013-01-18 12:24:00,18.2,0.4,30.37,South,172,2.0,5.0,45,0.00,,,0.00,Wunderground v.1.15,2013-01-18 17:24:00,
2013-01-18 12:25:00,18.2,0.4,30.37,South,172,2.0,5.0,45,0.00,,,0.00,Wunderground v.1.15,2013-01-18 17:25:00,
2013-01-18 12:28:00,17.9,0.1,30.37,South,172,1.0,6.0,45,0.00,,,0.00,Wunderground v.1.15,2013-01-18 17:28:00,
2013-01-18 12:29:00,17.9,0.1,30.37,South,172,1.0,6.0,45,0.00,,,0.00,Wunderground v.1.15,2013-01-18 17:29:00,
2013-01-18 12:30:00,17.9,0.1,30.37,South,172,1.0,2.0,45,0.00,,,0.00,Wunderground v.1.15,2013-01-18 17:30:00,
2013-01-18 12:31:00,17.9,0.1,30.37,South,172,5.0,8.0,45,0.00,,,0.00,Wunderground v.1.15,2013-01-18 17:31:00,
2013-01-18 12:34:00,17.8,-0.5,30.37,South,172,5.0,8.0,44,0.00,,,0.00,Wunderground v.1.15,2013-01-18 17:34:00,
2013-01-18 12:35:00,17.9,0.6,30.37,South,172,2.0,8.0,46,0.00,,,0.00,Wunderground v.1.15,2013-01-18 17:35:00,
2013-01-18 12:36:00,17.9,0.6,30.37,South,172,2.0,8.0,46,0.00,,,0.00,Wunderground v.1.15,2013-01-18 17:36:00,
2013-01-18 12:39:00,18.1,1.7,30.37,South,172,3.0,8.0,48,0.00,,,0.00,Wunderground v.1.15,2013-01-18 17:39:00,
2013-01-18 12:40:00,18.2,1.8,30.38,South,172,5.0,5.0,48,0.00,,,0.00,Wunderground v.1.15,2013-01-18 17:40:00,
2013-01-18 12:41:00,18.3,1.9,30.37,South,172,1.0,5.0,48,0.00,,,0.00,Wunderground v.1.15,2013-01-18 17:41:00,
2013-01-18 12:44:00,18.3,0.0,30.37,South,172,3.0,6.0,44,0.00,,,0.00,Wunderground v.1.15,2013-01-18 17:44:00,
2013-01-18 12:45:00,18.3,0.9,30.37,South,172,1.0,6.0,46,0.00,,,0.00,Wunderground v.1.15,2013-01-18 17:45:00,
2013-01-18 12:46:00,18.3,0.9,30.37,South,172,1.0,6.0,46,0.00,,,0.00,Wunderground v.1.15,2013-01-18 17:46:00,
2013-01-18 12:49:00,18.8,0.5,30.38,South,172,3.0,7.0,44,0.00,,,0.00,Wunderground v.1.15,2013-01-18 17:49:00,
2013-01-18 12:50:00,18.6,0.3,30.37,South,173,1.0,10.0,44,0.00,,,0.00,Wunderground v.1.15,2013-01-18 17:50:00,
2013-01-18 12:51:00,18.6,0.7,30.37,South,173,2.0,10.0,45,0.00,,,0.00,Wunderground v.1.15,2013-01-18 17:51:00,
2013-01-18 12:54:00,18.7,0.4,30.38,South,174,2.0,10.0,44,0.00,,,0.00,Wunderground v.1.15,2013-01-18 17:54:00,
2013-01-18 12:56:00,18.7,1.3,30.38,South,174,2.0,10.0,46,0.00,,,0.00,Wunderground v.1.15,2013-01-18 17:56:00,
2013-01-18 12:57:00,18.7,0.8,30.38,South,173,2.0,10.0,45,0.00,,,0.00,Wunderground v.1.15,2013-01-18 17:57:00,
2013-01-18 12:59:00,18.8,0.0,30.38,South,173,2.0,10.0,43,0.00,,,0.00,Wunderground v.1.15,2013-01-18 17:59:00,
2013-01-18 13:00:00,18.8,0.0,30.38,South,174,1.0,3.0,43,0.00,,,0.00,Wunderground v.1.15,2013-01-18 18:00:00,
2013-01-18 13:02:00,18.9,0.5,30.38,South,173,3.0,3.0,44,0.00,,,0.00,Wunderground v.1.15,2013-01-18 18:02:00,
2013-01-18 13:04:00,19.0,0.1,30.38,South,174,2.0,5.0,43,0.00,,,0.00,Wunderground v.1.15,2013-01-18 18:04:00,
2013-01-18 13:05:00,19.0,0.6,30.38,South,174,2.0,5.0,44,0.00,,,0.00,Wunderground v.1.15,2013-01-18 18:05:00,
2013-01-18 13:07:00,19.0,-0.4,30.38,South,174,3.0,8.0,42,0.00,,,0.00,Wunderground v.1.15,2013-01-18 18:07:00,
2013-01-18 13:08:00,19.0,0.1,30.38,South,173,3.0,8.0,43,0.00,,,0.00,Wunderground v.1.15,2013-01-18 18:08:00,
2013-01-18 13:09:00,18.8,-1.1,30.39,South,174,2.0,9.0,41,0.00,,,0.00,Wunderground v.1.15,2013-01-18 18:09:00,
2013-01-18 13:10:00,18.8,-1.1,30.39,South,173,4.0,4.0,41,0.00,,,0.00,Wunderground v.1.15,2013-01-18 18:10:00,
2013-01-18 13:12:00,18.5,-1.3,30.38,South,173,1.0,8.0,41,0.00,,,0.00,Wunderground v.1.15,2013-01-18 18:12:00,
2013-01-18 13:13:00,18.5,-1.3,30.39,South,174,1.0,8.0,41,0.00,,,0.00,Wunderground v.1.15,2013-01-18 18:13:00,
2013-01-18 13:15:00,18.5,-0.3,30.39,South,173,1.0,8.0,43,0.00,,,0.00,Wunderground v.1.15,2013-01-18 18:15:00,
2013-01-18 13:17:00,18.7,0.8,30.39,South,173,1.0,8.0,45,0.00,,,0.00,Wunderground v.1.15,2013-01-18 18:17:00,
2013-01-18 13:18:00,18.8,1.4,30.39,South,173,2.0,8.0,46,0.00,,,0.00,Wunderground v.1.15,2013-01-18 18:18:00,
2013-01-18 13:20:00,18.7,-0.1,30.39,South,174,1.0,2.0,43,0.00,,,0.00,Wunderground v.1.15,2013-01-18 18:20:00,
2013-01-18 13:22:00,18.5,-0.3,30.39,South,174,1.0,6.0,43,0.00,,,0.00,Wunderground v.1.15,2013-01-18 18:22:00,
2013-01-18 13:23:00,18.5,-0.3,30.39,South,173,1.0,6.0,43,0.00,,,0.00,Wunderground v.1.15,2013-01-18 18:23:00,
2013-01-18 13:25:00,18.4,-0.9,30.39,South,174,4.0,6.0,42,0.00,,,0.00,Wunderground v.1.15,2013-01-18 18:25:00,
2013-01-18 13:28:00,18.3,-1.5,30.39,South,173,1.0,6.0,41,0.00,,,0.00,Wunderground v.1.15,2013-01-18 18:28:00,
2013-01-18 13:30:00,18.6,-0.7,30.39,South,174,1.0,2.0,42,0.00,,,0.00,Wunderground v.1.15,2013-01-18 18:30:00,
2013-01-18 13:31:00,18.6,0.3,30.39,South,174,2.0,4.0,44,0.00,,,0.00,Wunderground v.1.15,2013-01-18 18:31:00,
2013-01-18 13:33:00,18.8,0.0,30.39,South,173,2.0,4.0,43,0.00,,,0.00,Wunderground v.1.15,2013-01-18 18:33:00,
2013-01-18 13:35:00,18.7,-0.1,30.39,South,174,0.0,8.0,43,0.00,,,0.00,Wunderground v.1.15,2013-01-18 18:35:00,
2013-01-18 13:36:00,18.7,-0.1,30.39,South,173,2.0,8.0,43,0.00,,,0.00,Wunderground v.1.15,2013-01-18 18:36:00,
2013-01-18 13:38:00,18.6,0.7,30.39,South,174,1.0,11.0,45,0.00,,,0.00,Wunderground v.1.15,2013-01-18 18:38:00,
2013-01-18 13:41:00,18.8,0.5,30.39,South,174,1.0,6.0,44,0.00,,,0.00,Wunderground v.1.15,2013-01-18 18:41:00,
2013-01-18 13:43:00,18.8,0.5,30.39,South,173,3.0,6.0,44,0.00,,,0.00,Wunderground v.1.15,2013-01-18 18:43:00,
2013-01-18 13:44:00,18.7,-0.1,30.39,South,173,2.0,6.0,43,0.00,,,0.00,Wunderground v.1.15,2013-01-18 18:44:00,
2013-01-18 13:46:00,18.8,-0.5,30.39,South,173,2.0,6.0,42,0.00,,,0.00,Wunderground v.1.15,2013-01-18 18:46:00,
2013-01-18 13:48:00,18.9,0.1,30.39,South,174,2.0,6.0,43,0.00,,,0.00,Wunderground v.1.15,2013-01-18 18:48:00,
2013-01-18 13:49:00,18.9,0.1,30.39,South,173,2.0,6.0,43,0.00,,,0.00,Wunderground v.1.15,2013-01-18 18:49:00,
2013-01-18 13:51:00,19.0,-0.4,30.39,South,173,5.0,6.0,42,0.00,,,0.00,Wunderground v.1.15,2013-01-18 18:51:00,
2013-01-18 13:53:00,19.0,-0.9,30.39,South,173,2.0,6.0,41,0.00,,,0.00,Wunderground v.1.15,2013-01-18 18:53:00,
2013-01-18 13:54:00,19.0,-0.9,30.39,South,173,3.0,6.0,41,0.00,,,0.00,Wunderground v.1.15,2013-01-18 18:54:00,
2013-01-18 13:56:00,19.0,-0.4,30.40,South,174,1.0,7.0,42,0.00,,,0.00,Wunderground v.1.15,2013-01-18 18:56:00,
2013-01-18 13:58:00,18.9,-0.5,30.39,South,174,3.0,7.0,42,0.00,,,0.00,Wunderground v.1.15,2013-01-18 18:58:00,
2013-01-18 13:59:00,18.8,-1.1,30.40,South,173,3.0,7.0,41,0.00,,,0.00,Wunderground v.1.15,2013-01-18 18:59:00,
2013-01-18 14:02:00,18.8,-1.1,30.40,South,173,4.0,4.0,41,0.00,,,0.00,Wunderground v.1.15,2013-01-18 19:02:00,
2013-01-18 14:04:00,18.8,0.0,30.40,South,173,4.0,4.0,43,0.00,,,0.00,Wunderground v.1.15,2013-01-18 19:04:00,
2013-01-18 14:07:00,18.8,0.0,30.40,South,173,2.0,6.0,43,0.00,,,0.00,Wunderground v.1.15,2013-01-18 19:07:00,
2013-01-18 14:09:00,18.8,-0.5,30.40,South,173,1.0,6.0,42,0.00,,,0.00,Wunderground v.1.15,2013-01-18 19:09:00,
2013-01-18 14:12:00,18.7,-0.6,30.40,South,173,2.0,6.0,42,0.00,,,0.00,Wunderground v.1.15,2013-01-18 19:12:00,
2013-01-18 14:14:00,18.6,-0.7,30.41,South,174,6.0,8.0,42,0.00,,,0.00,Wunderground v.1.15,2013-01-18 19:14:00,
2013-01-18 14:17:00,18.3,-0.5,30.41,South,173,4.0,8.0,43,0.00,,,0.00,Wunderground v.1.15,2013-01-18 19:17:00,
2013-01-18 14:19:00,18.2,-0.6,30.41,South,173,2.0,8.0,43,0.00,,,0.00,Wunderground v.1.15,2013-01-18 19:19:00,
2013-01-18 14:20:00,18.2,-0.6,30.41,South,174,2.0,3.0,43,0.00,,,0.00,Wunderground v.1.15,2013-01-18 19:20:00,
2013-01-18 14:22:00,18.1,-1.2,30.41,South,174,4.0,11.0,42,0.00,,,0.00,Wunderground v.1.15,2013-01-18 19:22:00,
2013-01-18 14:23:00,18.0,-0.8,30.41,South,173,4.0,11.0,43,0.00,,,0.00,Wunderground v.1.15,2013-01-18 19:23:00,
2013-01-18 14:24:00,17.9,-0.9,30.41,South,174,3.0,11.0,43,0.00,,,0.00,Wunderground v.1.15,2013-01-18 19:24:00,
2013-01-18 14:25:00,18.0,-0.8,30.41,South,174,1.0,11.0,43,0.00,,,0.00,Wunderground v.1.15,2013-01-18 19:25:00,
2013-01-18 14:27:00,18.1,-0.7,30.41,South,174,6.0,11.0,43,0.00,,,0.00,Wunderground v.1.15,2013-01-18 19:27:00,
2013-01-18 14:28:00,18.1,-1.2,30.41,South,174,3.0,11.0,42,0.00,,,0.00,Wunderground v.1.15,2013-01-18 19:28:00,
2013-01-18 14:29:00,17.9,-1.4,30.41,South,174,2.0,11.0,42,0.00,,,0.00,Wunderground v.1.15,2013-01-18 19:29:00,
2013-01-18 14:30:00,18.0,-0.8,30.41,South,173,8.0,8.0,43,0.00,,,0.00,Wunderground v.1.15,2013-01-18 19:30:00,
2013-01-18 14:32:00,18.0,0.2,30.41,South,173,2.0,8.0,45,0.00,,,0.00,Wunderground v.1.15,2013-01-18 19:32:00,
2013-01-18 14:33:00,18.1,0.3,30.41,South,173,4.0,8.0,45,0.00,,,0.00,Wunderground v.1.15,2013-01-18 19:33:00,
2013-01-18 14:34:00,18.1,-0.7,30.41,South,173,2.0,8.0,43,0.00,,,0.00,Wunderground v.1.15,2013-01-18 19:34:00,
2013-01-18 14:36:00,18.2,-0.6,30.41,South,174,1.0,8.0,43,0.00,,,0.00,Wunderground v.1.15,2013-01-18 19:36:00,
2013-01-18 14:37:00,18.3,-0.5,30.41,South,173,3.0,8.0,43,0.00,,,0.00,Wunderground v.1.15,2013-01-18 19:37:00,
2013-01-18 14:38:00,18.3,0.0,30.41,South,173,1.0,8.0,44,0.00,,,0.00,Wunderground v.1.15,2013-01-18 19:38:00,
2013-01-18 14:39:00,18.3,0.0,30.41,South,173,1.0,8.0,44,0.00,,,0.00,Wunderground v.1.15,2013-01-18 19:39:00,
2013-01-18 14:41:00,18.3,0.0,30.41,South,174,1.0,8.0,44,0.00,,,0.00,Wunderground v.1.15,2013-01-18 19:41:00,
2013-01-18 14:42:00,18.2,-0.6,30.41,South,173,1.0,8.0,43,0.00,,,0.00,Wunderground v.1.15,2013-01-18 19:42:00,
2013-01-18 14:43:00,18.3,0.0,30.41,South,173,1.0,8.0,44,0.00,,,0.00,Wunderground v.1.15,2013-01-18 19:43:00,
2013-01-18 14:44:00,18.3,0.0,30.42,South,174,1.0,8.0,44,0.00,,,0.00,Wunderground v.1.15,2013-01-18 19:44:00,
2013-01-18 14:46:00,18.4,0.6,30.41,South,173,3.0,8.0,45,0.00,,,0.00,Wunderground v.1.15,2013-01-18 19:46:00,
2013-01-18 14:47:00,18.3,-0.5,30.41,South,173,3.0,8.0,43,0.00,,,0.00,Wunderground v.1.15,2013-01-18 19:47:00,
2013-01-18 14:48:00,18.4,0.1,30.41,South,173,2.0,8.0,44,0.00,,,0.00,Wunderground v.1.15,2013-01-18 19:48:00,
2013-01-18 14:50:00,18.4,-0.4,30.41,South,174,2.0,2.0,43,0.00,,,0.00,Wunderground v.1.15,2013-01-18 19:50:00,
2013-01-18 14:51:00,18.5,-0.3,30.41,South,174,0.0,3.0,43,0.00,,,0.00,Wunderground v.1.15,2013-01-18 19:51:00,
2013-01-18 14:52:00,18.5,-0.3,30.41,South,173,2.0,3.0,43,0.00,,,0.00,Wunderground v.1.15,2013-01-18 19:52:00,
2013-01-18 14:54:00,18.4,0.6,30.41,South,174,2.0,3.0,45,0.00,,,0.00,Wunderground v.1.15,2013-01-18 19:54:00,
2013-01-18 14:55:00,18.4,1.0,30.41,South,173,2.0,3.0,46,0.00,,,0.00,Wunderground v.1.15,2013-01-18 19:55:00,
2013-01-18 14:56:00,18.3,0.5,30.41,South,173,2.0,3.0,45,0.00,,,0.00,Wunderground v.1.15,2013-01-18 19:56:00,
2013-01-18 14:57:00,18.3,0.0,30.42,South,174,2.0,5.0,44,0.00,,,0.00,Wunderground v.1.15,2013-01-18 19:57:00,
2013-01-18 14:59:00,18.2,0.4,30.41,South,174,4.0,5.0,45,0.00,,,0.00,Wunderground v.1.15,2013-01-18 19:59:00,
2013-01-18 15:01:00,18.0,-0.3,30.41,South,174,1.0,2.0,44,0.00,,,0.00,Wunderground v.1.15,2013-01-18 20:01:00,
2013-01-18 15:03:00,18.0,-0.3,30.41,South,174,2.0,4.0,44,0.00,,,0.00,Wunderground v.1.15,2013-01-18 20:03:00,
2013-01-18 15:04:00,18.1,-0.7,30.41,South,173,2.0,7.0,43,0.00,,,0.00,Wunderground v.1.15,2013-01-18 20:04:00,
2013-01-18 15:06:00,18.1,0.3,30.41,South,174,2.0,7.0,45,0.00,,,0.00,Wunderground v.1.15,2013-01-18 20:06:00,
2013-01-18 15:08:00,18.0,0.2,30.41,South,174,2.0,7.0,45,0.00,,,0.00,Wunderground v.1.15,2013-01-18 20:08:00,
2013-01-18 15:09:00,17.9,-0.4,30.41,South,174,8.0,8.0,44,0.00,,,0.00,Wunderground v.1.15,2013-01-18 20:09:00,
2013-01-18 15:11:00,17.6,-0.6,30.41,South,174,1.0,2.0,44,0.00,,,0.00,Wunderground v.1.15,2013-01-18 20:11:00,
2013-01-18 15:13:00,17.4,-0.4,30.41,South,173,5.0,5.0,45,0.00,,,0.00,Wunderground v.1.15,2013-01-18 20:13:00,
2013-01-18 15:14:00,17.2,-1.0,30.41,South,174,2.0,6.0,44,0.00,,,0.00,Wunderground v.1.15,2013-01-18 20:14:00,
2013-01-18 15:16:00,17.1,-0.2,30.41,South,173,0.0,6.0,46,0.00,,,0.00,Wunderground v.1.15,2013-01-18 20:16:00,
2013-01-18 15:18:00,17.0,0.2,30.41,South,173,0.0,6.0,47,0.00,,,0.00,Wunderground v.1.15,2013-01-18 20:18:00,
2013-01-18 15:19:00,17.0,0.7,30.41,South,174,1.0,6.0,48,0.00,,,0.00,Wunderground v.1.15,2013-01-18 20:19:00,
2013-01-18 15:21:00,16.9,-0.3,30.41,South,173,2.0,3.0,46,0.00,,,0.00,Wunderground v.1.15,2013-01-18 20:21:00,
2013-01-18 15:24:00,16.8,0.5,30.41,South,173,4.0,5.0,48,0.00,,,0.00,Wunderground v.1.15,2013-01-18 20:24:00,
2013-01-18 15:27:00,16.6,-0.2,30.41,South,173,3.0,5.0,47,0.00,,,0.00,Wunderground v.1.15,2013-01-18 20:27:00,
2013-01-18 15:29:00,16.5,-0.3,30.41,South,173,1.0,5.0,47,0.00,,,0.00,Wunderground v.1.15,2013-01-18 20:29:00,
2013-01-18 15:32:00,16.5,-0.3,30.41,South,173,1.0,2.0,47,0.00,,,0.00,Wunderground v.1.15,2013-01-18 20:32:00,
2013-01-18 15:34:00,16.4,0.5,30.41,South,173,1.0,2.0,49,0.00,,,0.00,Wunderground v.1.15,2013-01-18 20:34:00,
2013-01-18 15:35:00,16.4,1.0,30.41,South,174,2.0,2.0,50,0.00,,,0.00,Wunderground v.1.15,2013-01-18 20:35:00,
2013-01-18 15:38:00,16.2,0.4,30.41,South,173,2.0,4.0,49,0.00,,,0.00,Wunderground v.1.15,2013-01-18 20:38:00,
2013-01-18 15:39:00,16.2,-0.1,30.42,South,173,3.0,4.0,48,0.00,,,0.00,Wunderground v.1.15,2013-01-18 20:39:00,
2013-01-18 15:40:00,16.2,-0.1,30.41,South,173,2.0,4.0,48,0.00,,,0.00,Wunderground v.1.15,2013-01-18 20:40:00,
2013-01-18 15:43:00,16.0,-0.3,30.41,South,173,3.0,7.0,48,0.00,,,0.00,Wunderground v.1.15,2013-01-18 20:43:00,
2013-01-18 15:44:00,16.0,-0.3,30.41,South,173,3.0,7.0,48,0.00,,,0.00,Wunderground v.1.15,2013-01-18 20:44:00,
2013-01-18 15:45:00,16.0,-0.3,30.41,South,174,2.0,7.0,48,0.00,,,0.00,Wunderground v.1.15,2013-01-18 20:45:00,
2013-01-18 15:48:00,15.9,0.5,30.41,South,173,2.0,7.0,50,0.00,,,0.00,Wunderground v.1.15,2013-01-18 20:48:00,
2013-01-18 15:49:00,15.8,0.4,30.41,South,173,0.0,7.0,50,0.00,,,0.00,Wunderground v.1.15,2013-01-18 20:49:00,
2013-01-18 15:50:00,15.8,0.4,30.41,South,174,3.0,7.0,50,0.00,,,0.00,Wunderground v.1.15,2013-01-18 20:50:00,
2013-01-18 15:53:00,15.8,0.0,30.41,South,174,0.0,4.0,49,0.00,,,0.00,Wunderground v.1.15,2013-01-18 20:53:00,
2013-01-18 15:54:00,15.8,0.0,30.41,South,174,3.0,4.0,49,0.00,,,0.00,Wunderground v.1.15,2013-01-18 20:54:00,
2013-01-18 15:55:00,15.8,0.0,30.41,South,174,1.0,4.0,49,0.00,,,0.00,Wunderground v.1.15,2013-01-18 20:55:00,
2013-01-18 15:59:00,15.8,0.0,30.41,South,173,0.0,4.0,49,0.00,,,0.00,Wunderground v.1.15,2013-01-18 20:59:00,
2013-01-18 16:01:00,15.8,0.4,30.41,South,173,3.0,3.0,50,0.00,,,0.00,Wunderground v.1.15,2013-01-18 21:01:00,
2013-01-18 16:04:00,15.7,-0.1,30.41,South,173,3.0,4.0,49,0.00,,,0.00,Wunderground v.1.15,2013-01-18 21:04:00,
2013-01-18 16:05:00,15.6,-0.2,30.41,South,173,1.0,4.0,49,0.00,,,0.00,Wunderground v.1.15,2013-01-18 21:05:00,
2013-01-18 16:06:00,15.6,-0.2,30.41,South,173,1.0,4.0,49,0.00,,,0.00,Wunderground v.1.15,2013-01-18 21:06:00,
2013-01-18 16:09:00,15.4,0.0,30.42,South,173,2.0,5.0,50,0.00,,,0.00,Wunderground v.1.15,2013-01-18 21:09:00,
2013-01-18 16:10:00,15.3,0.0,30.42,South,173,1.0,5.0,50,0.00,,,0.00,Wunderground v.1.15,2013-01-18 21:10:00,
2013-01-18 16:11:00,15.3,0.0,30.42,South,173,3.0,3.0,50,0.00,,,0.00,Wunderground v.1.15,2013-01-18 21:11:00,
2013-01-18 16:14:00,15.2,-0.1,30.42,South,173,0.0,3.0,50,0.00,,,0.00,Wunderground v.1.15,2013-01-18 21:14:00,
2013-01-18 16:15:00,15.2,-0.1,30.42,South,173,2.0,3.0,50,0.00,,,0.00,Wunderground v.1.15,2013-01-18 21:15:00,
2013-01-18 16:16:00,15.2,-0.1,30.42,South,174,2.0,4.0,50,0.00,,,0.00,Wunderground v.1.15,2013-01-18 21:16:00,
2013-01-18 16:19:00,15.1,0.6,30.42,South,173,1.0,4.0,52,0.00,,,0.00,Wunderground v.1.15,2013-01-18 21:19:00,
2013-01-18 16:20:00,15.1,0.6,30.42,South,174,2.0,4.0,52,0.00,,,0.00,Wunderground v.1.15,2013-01-18 21:20:00,
2013-01-18 16:22:00,15.0,0.1,30.42,South,173,1.0,4.0,51,0.00,,,0.00,Wunderground v.1.15,2013-01-18 21:22:00,
2013-01-18 16:24:00,14.9,0.0,30.42,South,173,2.0,4.0,51,0.00,,,0.00,Wunderground v.1.15,2013-01-18 21:24:00,
2013-01-18 16:25:00,14.9,0.0,30.42,South,174,2.0,4.0,51,0.00,,,0.00,Wunderground v.1.15,2013-01-18 21:25:00,
2013-01-18 16:27:00,14.8,0.3,30.42,South,174,1.0,5.0,52,0.00,,,0.00,Wunderground v.1.15,2013-01-18 21:27:00,
2013-01-18 16:29:00,14.7,0.6,30.42,South,174,0.0,5.0,53,0.00,,,0.00,Wunderground v.1.15,2013-01-18 21:29:00,
2013-01-18 16:30:00,14.7,1.0,30.42,South,173,0.0,5.0,54,0.00,,,0.00,Wunderground v.1.15,2013-01-18 21:30:00,
2013-01-18 16:32:00,14.5,0.9,30.42,South,173,1.0,2.0,54,0.00,,,0.00,Wunderground v.1.15,2013-01-18 21:32:00,
2013-01-18 16:34:00,14.5,0.0,30.43,South,173,0.0,2.0,52,0.00,,,0.00,Wunderground v.1.15,2013-01-18 21:34:00,
2013-01-18 16:35:00,14.5,0.5,30.42,South,173,0.0,2.0,53,0.00,,,0.00,Wunderground v.1.15,2013-01-18 21:35:00,
2013-01-18 16:36:00,14.5,0.5,30.43,South,173,1.0,2.0,53,0.00,,,0.00,Wunderground v.1.15,2013-01-18 21:36:00,
2013-01-18 16:37:00,14.4,0.8,30.43,South,173,1.0,2.0,54,0.00,,,0.00,Wunderground v.1.15,2013-01-18 21:37:00,
2013-01-18 16:39:00,14.3,1.1,30.43,South,173,0.0,2.0,55,0.00,,,0.00,Wunderground v.1.15,2013-01-18 21:39:00,
2013-01-18 16:40:00,14.3,0.7,30.43,South,173,0.0,2.0,54,0.00,,,0.00,Wunderground v.1.15,2013-01-18 21:40:00,
2013-01-18 16:41:00,14.3,0.7,30.43,South,174,1.0,1.0,54,0.00,,,0.00,Wunderground v.1.15,2013-01-18 21:41:00,
2013-01-18 16:42:00,14.3,0.3,30.43,South,173,0.0,1.0,53,0.00,,,0.00,Wunderground v.1.15,2013-01-18 21:42:00,
2013-01-18 16:44:00,14.3,1.1,30.43,South,173,1.0,1.0,55,0.00,,,0.00,Wunderground v.1.15,2013-01-18 21:44:00,
2013-01-18 16:45:00,14.2,1.0,30.43,South,173,1.0,2.0,55,0.00,,,0.00,Wunderground v.1.15,2013-01-18 21:45:00,
2013-01-18 16:46:00,14.2,0.6,30.43,South,173,0.0,2.0,54,0.00,,,0.00,Wunderground v.1.15,2013-01-18 21:46:00,
2013-01-18 16:47:00,14.1,0.9,30.43,South,174,0.0,2.0,55,0.00,,,0.00,Wunderground v.1.15,2013-01-18 21:47:00,
2013-01-18 16:50:00,14.0,1.5,30.43,South,173,0.0,2.0,57,0.00,,,0.00,Wunderground v.1.15,2013-01-18 21:50:00,
2013-01-18 16:51:00,13.9,1.5,30.43,South,174,1.0,1.0,57,0.00,,,0.00,Wunderground v.1.15,2013-01-18 21:51:00,
2013-01-18 16:53:00,13.9,1.1,30.43,South,174,0.0,1.0,56,0.00,,,0.00,Wunderground v.1.15,2013-01-18 21:53:00,
2013-01-18 16:55:00,13.8,1.7,30.43,South,173,0.0,1.0,58,0.00,,,0.00,Wunderground v.1.15,2013-01-18 21:55:00,
2013-01-18 16:56:00,13.8,1.7,30.43,South,173,1.0,1.0,58,0.00,,,0.00,Wunderground v.1.15,2013-01-18 21:56:00,
2013-01-18 16:58:00,13.7,2.4,30.43,South,174,0.0,1.0,60,0.00,,,0.00,Wunderground v.1.15,2013-01-18 21:58:00,
2013-01-18 17:02:00,13.5,2.2,30.43,South,173,0.0,0.0,60,0.00,,,0.00,Wunderground v.1.15,2013-01-18 22:02:00,
2013-01-18 17:03:00,13.4,1.7,30.43,South,173,0.0,0.0,59,0.00,,,0.00,Wunderground v.1.15,2013-01-18 22:03:00,
2013-01-18 17:07:00,13.2,1.9,30.43,South,173,0.0,1.0,60,0.00,,,0.00,Wunderground v.1.15,2013-01-18 22:07:00,
2013-01-18 17:08:00,13.2,2.3,30.43,South,173,0.0,1.0,61,0.00,,,0.00,Wunderground v.1.15,2013-01-18 22:08:00,
2013-01-18 17:12:00,12.9,2.3,30.43,South,173,1.0,1.0,62,0.00,,,0.00,Wunderground v.1.15,2013-01-18 22:12:00,
2013-01-18 17:13:00,12.9,2.3,30.44,South,173,1.0,1.0,62,0.00,,,0.00,Wunderground v.1.15,2013-01-18 22:13:00,
2013-01-18 17:17:00,12.9,2.3,30.44,South,174,1.0,1.0,62,0.00,,,0.00,Wunderground v.1.15,2013-01-18 22:17:00,
2013-01-18 17:18:00,12.8,1.9,30.44,South,173,1.0,1.0,61,0.00,,,0.00,Wunderground v.1.15,2013-01-18 22:18:00,
2013-01-18 17:22:00,12.8,1.5,30.44,South,173,1.0,2.0,60,0.00,,,0.00,Wunderground v.1.15,2013-01-18 22:22:00,
2013-01-18 17:23:00,12.8,1.5,30.44,South,173,0.0,2.0,60,0.00,,,0.00,Wunderground v.1.15,2013-01-18 22:23:00,
2013-01-18 17:27:00,12.7,1.8,30.45,South,174,0.0,2.0,61,0.00,,,0.00,Wunderground v.1.15,2013-01-18 22:27:00,
2013-01-18 17:28:00,12.6,1.7,30.44,South,173,0.0,2.0,61,0.00,,,0.00,Wunderground v.1.15,2013-01-18 22:28:00,
2013-01-18 17:29:00,12.6,1.7,30.45,South,173,0.0,2.0,61,0.00,,,0.00,Wunderground v.1.15,2013-01-18 22:29:00,
2013-01-18 17:32:00,12.5,1.9,30.45,South,174,0.0,1.0,62,0.00,,,0.00,Wunderground v.1.15,2013-01-18 22:32:00,
2013-01-18 17:33:00,12.5,1.9,30.45,South,174,0.0,1.0,62,0.00,,,0.00,Wunderground v.1.15,2013-01-18 22:33:00,
2013-01-18 17:34:00,12.5,1.9,30.45,South,173,1.0,1.0,62,0.00,,,0.00,Wunderground v.1.15,2013-01-18 22:34:00,
2013-01-18 17:38:00,12.4,1.8,30.45,South,173,1.0,4.0,62,0.00,,,0.00,Wunderground v.1.15,2013-01-18 22:38:00,
2013-01-18 17:39:00,12.4,1.8,30.45,South,173,0.0,4.0,62,0.00,,,0.00,Wunderground v.1.15,2013-01-18 22:39:00,
2013-01-18 17:43:00,12.3,1.7,30.45,South,173,0.0,1.0,62,0.00,,,0.00,Wunderground v.1.15,2013-01-18 22:43:00,
2013-01-18 17:44:00,12.3,1.7,30.45,South,173,0.0,1.0,62,0.00,,,0.00,Wunderground v.1.15,2013-01-18 22:44:00,
2013-01-18 17:48:00,12.3,2.1,30.45,South,174,0.0,1.0,63,0.00,,,0.00,Wunderground v.1.15,2013-01-18 22:48:00,
2013-01-18 17:49:00,12.4,1.8,30.45,South,173,1.0,1.0,62,0.00,,,0.00,Wunderground v.1.15,2013-01-18 22:49:00,
2013-01-18 17:53:00,12.5,1.9,30.45,South,173,0.0,1.0,62,0.00,,,0.00,Wunderground v.1.15,2013-01-18 22:53:00,
2013-01-18 17:54:00,12.5,1.9,30.44,South,173,0.0,1.0,62,0.00,,,0.00,Wunderground v.1.15,2013-01-18 22:54:00,
2013-01-18 17:58:00,12.4,1.8,30.45,South,173,1.0,1.0,62,0.00,,,0.00,Wunderground v.1.15,2013-01-18 22:58:00,
2013-01-18 17:59:00,12.3,2.4,30.45,South,173,1.0,1.0,64,0.00,,,0.00,Wunderground v.1.15,2013-01-18 22:59:00,
2013-01-18 18:03:00,12.3,2.4,30.45,South,173,0.0,1.0,64,0.00,,,0.00,Wunderground v.1.15,2013-01-18 23:03:00,
2013-01-18 18:04:00,12.2,2.3,30.45,South,173,0.0,1.0,64,0.00,,,0.00,Wunderground v.1.15,2013-01-18 23:04:00,
2013-01-18 18:08:00,12.1,2.6,30.45,South,173,0.0,1.0,65,0.00,,,0.00,Wunderground v.1.15,2013-01-18 23:08:00,
2013-01-18 18:09:00,12.1,2.6,30.45,South,174,1.0,1.0,65,0.00,,,0.00,Wunderground v.1.15,2013-01-18 23:09:00,
2013-01-18 18:14:00,11.9,2.4,30.45,South,173,1.0,1.0,65,0.00,,,0.00,Wunderground v.1.15,2013-01-18 23:14:00,
2013-01-18 18:15:00,11.9,2.7,30.45,South,174,1.0,1.0,66,0.00,,,0.00,Wunderground v.1.15,2013-01-18 23:15:00,
2013-01-18 18:19:00,11.8,2.3,30.45,South,173,0.0,1.0,65,0.00,,,0.00,Wunderground v.1.15,2013-01-18 23:19:00,
2013-01-18 18:20:00,11.7,2.2,30.45,South,173,0.0,1.0,65,0.00,,,0.00,Wunderground v.1.15,2013-01-18 23:20:00,
2013-01-18 18:24:00,11.5,2.0,30.45,South,173,0.0,1.0,65,0.00,,,0.00,Wunderground v.1.15,2013-01-18 23:24:00,
2013-01-18 18:25:00,11.5,2.0,30.45,South,173,1.0,1.0,65,0.00,,,0.00,Wunderground v.1.15,2013-01-18 23:25:00,
2013-01-18 18:29:00,11.4,2.6,30.45,South,173,0.0,1.0,67,0.00,,,0.00,Wunderground v.1.15,2013-01-18 23:29:00,
2013-01-18 18:30:00,11.4,2.6,30.45,South,173,0.0,1.0,67,0.00,,,0.00,Wunderground v.1.15,2013-01-18 23:30:00,
2013-01-18 18:34:00,11.2,2.7,30.45,South,174,0.0,2.0,68,0.00,,,0.00,Wunderground v.1.15,2013-01-18 23:34:00,
2013-01-18 18:35:00,11.2,2.7,30.45,South,173,1.0,2.0,68,0.00,,,0.00,Wunderground v.1.15,2013-01-18 23:35:00,
2013-01-18 18:39:00,11.2,2.4,30.45,South,173,1.0,2.0,67,0.00,,,0.00,Wunderground v.1.15,2013-01-18 23:39:00,
2013-01-18 18:40:00,11.2,2.4,30.45,South,173,0.0,1.0,67,0.00,,,0.00,Wunderground v.1.15,2013-01-18 23:40:00,
2013-01-18 18:44:00,11.2,2.7,30.45,South,173,0.0,1.0,68,0.00,,,0.00,Wunderground v.1.15,2013-01-18 23:44:00,
2013-01-18 18:45:00,11.2,2.7,30.45,South,173,0.0,1.0,68,0.00,,,0.00,Wunderground v.1.15,2013-01-18 23:45:00,
2013-01-18 18:46:00,11.1,2.6,30.45,South,173,1.0,1.0,68,0.00,,,0.00,Wunderground v.1.15,2013-01-18 23:46:00,
2013-01-18 18:50:00,11.0,2.8,30.45,South,174,1.0,1.0,69,0.00,,,0.00,Wunderground v.1.15,2013-01-18 23:50:00,
2013-01-18 18:51:00,10.9,2.7,30.45,South,173,1.0,1.0,69,0.00,,,0.00,Wunderground v.1.15,2013-01-18 23:51:00,
2013-01-18 18:55:00,10.8,2.9,30.45,South,174,1.0,2.0,70,0.00,,,0.00,Wunderground v.1.15,2013-01-18 23:55:00,
2013-01-18 18:56:00,10.9,2.7,30.45,South,174,1.0,2.0,69,0.00,,,0.00,Wunderground v.1.15,2013-01-18 23:56:00,
2013-01-18 19:02:00,11.3,3.1,30.45,South,173,1.0,2.0,69,0.00,,,0.00,Wunderground v.1.15,2013-01-19 00:02:00,
2013-01-18 19:07:00,11.4,2.9,30.45,South,174,1.0,3.0,68,0.00,,,0.00,Wunderground v.1.15,2013-01-19 00:07:00,
2013-01-18 19:12:00,11.4,3.2,30.45,South,174,1.0,2.0,69,0.00,,,0.00,Wunderground v.1.15,2013-01-19 00:12:00,
2013-01-18 19:13:00,11.4,3.2,30.45,South,173,1.0,2.0,69,0.00,,,0.00,Wunderground v.1.15,2013-01-19 00:13:00,
2013-01-18 19:17:00,11.5,3.3,30.45,South,173,1.0,2.0,69,0.00,,,0.00,Wunderground v.1.15,2013-01-19 00:17:00,
2013-01-18 19:18:00,11.5,3.3,30.45,South,173,0.0,2.0,69,0.00,,,0.00,Wunderground v.1.15,2013-01-19 00:18:00,
2013-01-18 19:22:00,11.6,3.1,30.45,South,173,1.0,4.0,68,0.00,,,0.00,Wunderground v.1.15,2013-01-19 00:22:00,
2013-01-18 19:23:00,11.6,3.1,30.45,South,174,1.0,4.0,68,0.00,,,0.00,Wunderground v.1.15,2013-01-19 00:23:00,
2013-01-18 19:27:00,11.5,3.3,30.45,South,173,0.0,4.0,69,0.00,,,0.00,Wunderground v.1.15,2013-01-19 00:27:00,
2013-01-18 19:28:00,11.5,3.3,30.45,South,173,0.0,4.0,69,0.00,,,0.00,Wunderground v.1.15,2013-01-19 00:28:00,
2013-01-18 19:33:00,11.3,3.1,30.44,South,173,0.0,1.0,69,0.00,,,0.00,Wunderground v.1.15,2013-01-19 00:33:00,
2013-01-18 19:38:00,11.3,3.1,30.45,South,173,0.0,1.0,69,0.00,,,0.00,Wunderground v.1.15,2013-01-19 00:38:00,
2013-01-18 19:43:00,11.1,2.9,30.45,South,173,0.0,1.0,69,0.00,,,0.00,Wunderground v.1.15,2013-01-19 00:43:00,
2013-01-18 19:48:00,11.2,3.3,30.45,South,173,0.0,2.0,70,0.00,,,0.00,Wunderground v.1.15,2013-01-19 00:48:00,
2013-01-18 19:49:00,11.1,3.2,30.45,South,173,0.0,2.0,70,0.00,,,0.00,Wunderground v.1.15,2013-01-19 00:49:00,
2013-01-18 19:53:00,10.9,3.3,30.45,South,173,1.0,2.0,71,0.00,,,0.00,Wunderground v.1.15,2013-01-19 00:53:00,
2013-01-18 19:54:00,10.9,3.3,30.45,South,173,1.0,2.0,71,0.00,,,0.00,Wunderground v.1.15,2013-01-19 00:54:00,
2013-01-18 19:58:00,10.9,3.6,30.45,South,173,0.0,2.0,72,0.00,,,0.00,Wunderground v.1.15,2013-01-19 00:58:00,
2013-01-18 19:59:00,10.9,3.6,30.45,South,173,0.0,2.0,72,0.00,,,0.00,Wunderground v.1.15,2013-01-19 00:59:00,
2013-01-18 20:03:00,11.0,3.7,30.45,South,173,1.0,2.0,72,0.00,,,0.00,Wunderground v.1.15,2013-01-19 01:03:00,
2013-01-18 20:04:00,11.0,3.7,30.45,South,173,1.0,2.0,72,0.00,,,0.00,Wunderground v.1.15,2013-01-19 01:04:00,
2013-01-18 20:08:00,11.1,3.5,30.45,South,173,0.0,2.0,71,0.00,,,0.00,Wunderground v.1.15,2013-01-19 01:08:00,
2013-01-18 20:09:00,11.2,3.6,30.45,South,174,1.0,2.0,71,0.00,,,0.00,Wunderground v.1.15,2013-01-19 01:09:00,
2013-01-18 20:13:00,11.3,3.7,30.45,South,173,4.0,4.0,71,0.00,,,0.00,Wunderground v.1.15,2013-01-19 01:13:00,
2013-01-18 20:14:00,11.4,3.8,30.45,South,173,2.0,4.0,71,0.00,,,0.00,Wunderground v.1.15,2013-01-19 01:14:00,
2013-01-18 20:18:00,11.9,4.0,30.46,South,173,1.0,4.0,70,0.00,,,0.00,Wunderground v.1.15,2013-01-19 01:18:00,
2013-01-18 20:19:00,11.9,4.0,30.45,South,173,1.0,4.0,70,0.00,,,0.00,Wunderground v.1.15,2013-01-19 01:19:00,
2013-01-18 20:23:00,12.0,3.8,30.45,South,173,1.0,3.0,69,0.00,,,0.00,Wunderground v.1.15,2013-01-19 01:23:00,
2013-01-18 20:24:00,12.1,3.9,30.45,South,174,0.0,3.0,69,0.00,,,0.00,Wunderground v.1.15,2013-01-19 01:24:00,
2013-01-18 20:28:00,12.1,3.9,30.45,South,173,3.0,3.0,69,0.00,,,0.00,Wunderground v.1.15,2013-01-19 01:28:00,
2013-01-18 20:29:00,12.1,3.9,30.45,South,174,5.0,5.0,69,0.00,,,0.00,Wunderground v.1.15,2013-01-19 01:29:00,
2013-01-18 20:30:00,12.1,3.9,30.45,South,173,3.0,4.0,69,0.00,,,0.00,Wunderground v.1.15,2013-01-19 01:30:00,
2013-01-18 20:33:00,12.5,3.9,30.45,South,173,1.0,6.0,68,0.00,,,0.00,Wunderground v.1.15,2013-01-19 01:33:00,
2013-01-18 20:34:00,12.5,3.9,30.45,South,173,1.0,6.0,68,0.00,,,0.00,Wunderground v.1.15,2013-01-19 01:34:00,
2013-01-18 20:35:00,12.5,3.9,30.45,South,173,1.0,6.0,68,0.00,,,0.00,Wunderground v.1.15,2013-01-19 01:35:00,
2013-01-18 20:39:00,12.3,4.1,30.46,South,173,1.0,6.0,69,0.00,,,0.00,Wunderground v.1.15,2013-01-19 01:39:00,
2013-01-18 20:40:00,12.2,4.0,30.46,South,173,1.0,2.0,69,0.00,,,0.00,Wunderground v.1.15,2013-01-19 01:40:00,
2013-01-18 20:44:00,12.2,4.6,30.45,South,173,0.0,2.0,71,0.00,,,0.00,Wunderground v.1.15,2013-01-19 01:44:00,
2013-01-18 20:45:00,12.1,4.5,30.45,South,173,0.0,2.0,71,0.00,,,0.00,Wunderground v.1.15,2013-01-19 01:45:00,
2013-01-18 20:49:00,12.0,4.1,30.45,South,173,2.0,3.0,70,0.00,,,0.00,Wunderground v.1.15,2013-01-19 01:49:00,
2013-01-18 20:50:00,11.9,4.0,30.45,South,173,1.0,1.0,70,0.00,,,0.00,Wunderground v.1.15,2013-01-19 01:50:00,
2013-01-18 20:54:00,11.7,4.4,30.45,South,173,1.0,1.0,72,0.00,,,0.00,Wunderground v.1.15,2013-01-19 01:54:00,
2013-01-18 20:55:00,11.6,4.0,30.45,South,173,0.0,1.0,71,0.00,,,0.00,Wunderground v.1.15,2013-01-19 01:55:00,
2013-01-18 20:59:00,11.4,4.1,30.45,South,173,0.0,1.0,72,0.00,,,0.00,Wunderground v.1.15,2013-01-19 01:59:00,
2013-01-18 21:00:00,11.3,4.0,30.45,South,173,0.0,1.0,72,0.00,,,0.00,Wunderground v.1.15,2013-01-19 02:00:00,
2013-01-18 21:02:00,11.2,3.9,30.45,South,174,0.0,1.0,72,0.00,,,0.00,Wunderground v.1.15,2013-01-19 02:02:00,
2013-01-18 21:04:00,11.1,3.8,30.45,South,174,0.0,1.0,72,0.00,,,0.00,Wunderground v.1.15,2013-01-19 02:04:00,
2013-01-18 21:05:00,11.1,3.8,30.45,South,173,0.0,1.0,72,0.00,,,0.00,Wunderground v.1.15,2013-01-19 02:05:00,
2013-01-18 21:07:00,11.0,3.7,30.45,South,173,0.0,1.0,72,0.00,,,0.00,Wunderground v.1.15,2013-01-19 02:07:00,
2013-01-18 21:09:00,10.9,3.6,30.45,South,173,1.0,1.0,72,0.00,,,0.00,Wunderground v.1.15,2013-01-19 02:09:00,
2013-01-18 21:10:00,10.9,3.6,30.45,South,173,0.0,1.0,72,0.00,,,0.00,Wunderground v.1.15,2013-01-19 02:10:00,
2013-01-18 21:12:00,10.8,3.8,30.45,South,173,0.0,1.0,73,0.00,,,0.00,Wunderground v.1.15,2013-01-19 02:12:00,
2013-01-18 21:15:00,10.9,3.9,30.45,South,173,0.0,1.0,73,0.00,,,0.00,Wunderground v.1.15,2013-01-19 02:15:00,
2013-01-18 21:16:00,10.8,4.1,30.45,South,173,0.0,1.0,74,0.00,,,0.00,Wunderground v.1.15,2013-01-19 02:16:00,
2013-01-18 21:17:00,10.8,4.1,30.45,South,173,0.0,1.0,74,0.00,,,0.00,Wunderground v.1.15,2013-01-19 02:17:00,
2013-01-18 21:20:00,10.8,3.8,30.45,South,173,0.0,0.0,73,0.00,,,0.00,Wunderground v.1.15,2013-01-19 02:20:00,
2013-01-18 21:21:00,10.8,3.8,30.45,South,173,0.0,0.0,73,0.00,,,0.00,Wunderground v.1.15,2013-01-19 02:21:00,
2013-01-18 21:22:00,10.8,3.8,30.45,South,173,0.0,0.0,73,0.00,,,0.00,Wunderground v.1.15,2013-01-19 02:22:00,
2013-01-18 21:25:00,10.8,3.5,30.45,South,173,0.0,0.0,72,0.00,,,0.00,Wunderground v.1.15,2013-01-19 02:25:00,
2013-01-18 21:26:00,10.7,3.4,30.45,South,173,0.0,0.0,72,0.00,,,0.00,Wunderground v.1.15,2013-01-19 02:26:00,
2013-01-18 21:27:00,10.7,3.7,30.45,South,173,0.0,0.0,73,0.00,,,0.00,Wunderground v.1.15,2013-01-19 02:27:00,
2013-01-18 21:30:00,10.6,3.6,30.45,South,173,0.0,0.0,73,0.00,,,0.00,Wunderground v.1.15,2013-01-19 02:30:00,
2013-01-18 21:31:00,10.7,3.7,30.44,South,173,0.0,0.0,73,0.00,,,0.00,Wunderground v.1.15,2013-01-19 02:31:00,
2013-01-18 21:32:00,10.6,3.6,30.44,South,173,0.0,1.0,73,0.00,,,0.00,Wunderground v.1.15,2013-01-19 02:32:00,
2013-01-18 21:35:00,10.6,3.6,30.44,South,173,0.0,1.0,73,0.00,,,0.00,Wunderground v.1.15,2013-01-19 02:35:00,
2013-01-18 21:36:00,10.6,3.6,30.44,South,173,0.0,1.0,73,0.00,,,0.00,Wunderground v.1.15,2013-01-19 02:36:00,
2013-01-18 21:37:00,10.6,3.6,30.44,South,173,0.0,1.0,73,0.00,,,0.00,Wunderground v.1.15,2013-01-19 02:37:00,
2013-01-18 21:38:00,10.6,3.6,30.44,South,174,0.0,1.0,73,0.00,,,0.00,Wunderground v.1.15,2013-01-19 02:38:00,
2013-01-18 21:41:00,10.9,3.6,30.45,South,173,1.0,3.0,72,0.00,,,0.00,Wunderground v.1.15,2013-01-19 02:41:00,
2013-01-18 21:42:00,10.9,3.6,30.44,South,173,0.0,3.0,72,0.00,,,0.00,Wunderground v.1.15,2013-01-19 02:42:00,
2013-01-18 21:43:00,11.0,3.7,30.45,South,173,0.0,3.0,72,0.00,,,0.00,Wunderground v.1.15,2013-01-19 02:43:00,
2013-01-18 21:46:00,11.2,3.9,30.44,South,173,2.0,3.0,72,0.00,,,0.00,Wunderground v.1.15,2013-01-19 02:46:00,
2013-01-18 21:47:00,11.3,4.0,30.44,South,173,0.0,3.0,72,0.00,,,0.00,Wunderground v.1.15,2013-01-19 02:47:00,
2013-01-18 21:48:00,11.3,4.0,30.44,South,173,1.0,3.0,72,0.00,,,0.00,Wunderground v.1.15,2013-01-19 02:48:00,
2013-01-18 21:52:00,11.3,4.0,30.44,South,173,2.0,5.0,72,0.00,,,0.00,Wunderground v.1.15,2013-01-19 02:52:00,
2013-01-18 21:53:00,11.4,4.1,30.44,South,173,1.0,5.0,72,0.00,,,0.00,Wunderground v.1.15,2013-01-19 02:53:00,
2013-01-18 21:57:00,11.4,4.4,30.44,South,173,2.0,5.0,73,0.00,,,0.00,Wunderground v.1.15,2013-01-19 02:57:00,
2013-01-18 21:58:00,11.4,4.4,30.44,South,173,1.0,5.0,73,0.00,,,0.00,Wunderground v.1.15,2013-01-19 02:58:00,
2013-01-18 22:02:00,11.6,4.6,30.44,South,173,3.0,3.0,73,0.00,,,0.00,Wunderground v.1.15,2013-01-19 03:02:00,
2013-01-18 22:03:00,11.8,4.5,30.43,South,173,3.0,4.0,72,0.00,,,0.00,Wunderground v.1.15,2013-01-19 03:03:00,
2013-01-18 22:07:00,12.0,4.4,30.43,South,174,1.0,4.0,71,0.00,,,0.00,Wunderground v.1.15,2013-01-19 03:07:00,
2013-01-18 22:08:00,12.1,4.5,30.43,South,173,1.0,4.0,71,0.00,,,0.00,Wunderground v.1.15,2013-01-19 03:08:00,
2013-01-18 22:12:00,12.3,4.7,30.43,South,173,3.0,4.0,71,0.00,,,0.00,Wunderground v.1.15,2013-01-19 03:12:00,
2013-01-18 22:13:00,12.3,4.7,30.43,South,173,2.0,4.0,71,0.00,,,0.00,Wunderground v.1.15,2013-01-19 03:13:00,
2013-01-18 22:17:00,12.4,4.8,30.43,South,173,1.0,6.0,71,0.00,,,0.00,Wunderground v.1.15,2013-01-19 03:17:00,
2013-01-18 22:18:00,12.4,4.8,30.43,South,174,2.0,6.0,71,0.00,,,0.00,Wunderground v.1.15,2013-01-19 03:18:00,
2013-01-18 22:23:00,12.4,4.8,30.43,South,173,1.0,4.0,71,0.00,,,0.00,Wunderground v.1.15,2013-01-19 03:23:00,
2013-01-18 22:28:00,12.4,4.5,30.42,South,173,1.0,4.0,70,0.00,,,0.00,Wunderground v.1.15,2013-01-19 03:28:00,
2013-01-18 22:33:00,12.6,5.0,30.42,South,173,3.0,3.0,71,0.00,,,0.00,Wunderground v.1.15,2013-01-19 03:33:00,
2013-01-18 22:38:00,12.7,5.1,30.42,South,173,1.0,4.0,71,0.00,,,0.00,Wunderground v.1.15,2013-01-19 03:38:00,
2013-01-18 22:43:00,12.9,5.0,30.41,South,173,1.0,5.0,70,0.00,,,0.00,Wunderground v.1.15,2013-01-19 03:43:00,
2013-01-18 22:44:00,13.0,5.0,30.41,South,173,1.0,5.0,70,0.00,,,0.00,Wunderground v.1.15,2013-01-19 03:44:00,
2013-01-18 22:45:00,13.0,5.0,30.41,South,173,2.0,5.0,70,0.00,,,0.00,Wunderground v.1.15,2013-01-19 03:45:00,
2013-01-18 22:48:00,13.2,5.2,30.41,South,173,4.0,6.0,70,0.00,,,0.00,Wunderground v.1.15,2013-01-19 03:48:00,
2013-01-18 22:49:00,13.2,5.2,30.41,South,174,4.0,6.0,70,0.00,,,0.00,Wunderground v.1.15,2013-01-19 03:49:00,
2013-01-18 22:51:00,13.4,5.4,30.41,South,173,3.0,4.0,70,0.00,,,0.00,Wunderground v.1.15,2013-01-19 03:51:00,
2013-01-18 22:53:00,13.6,5.6,30.41,South,173,1.0,6.0,70,0.00,,,0.00,Wunderground v.1.15,2013-01-19 03:53:00,
2013-01-18 22:54:00,13.6,5.6,30.41,South,173,2.0,6.0,70,0.00,,,0.00,Wunderground v.1.15,2013-01-19 03:54:00,
2013-01-18 22:56:00,13.7,6.0,30.41,South,173,2.0,6.0,71,0.00,,,0.00,Wunderground v.1.15,2013-01-19 03:56:00,
2013-01-18 22:58:00,13.9,6.2,30.40,South,173,3.0,6.0,71,0.00,,,0.00,Wunderground v.1.15,2013-01-19 03:58:00,
2013-01-18 22:59:00,13.9,6.2,30.40,South,173,3.0,6.0,71,0.00,,,0.00,Wunderground v.1.15,2013-01-19 03:59:00,
2013-01-18 23:01:00,14.0,6.3,30.40,South,173,2.0,6.0,71,0.00,,,0.00,Wunderground v.1.15,2013-01-19 04:01:00,
2013-01-18 23:03:00,14.2,5.9,30.40,South,173,3.0,6.0,69,0.00,,,0.00,Wunderground v.1.15,2013-01-19 04:03:00,
2013-01-18 23:04:00,14.2,5.9,30.40,South,174,2.0,6.0,69,0.00,,,0.00,Wunderground v.1.15,2013-01-19 04:04:00,
2013-01-18 23:05:00,14.3,6.0,30.40,South,173,3.0,6.0,69,0.00,,,0.00,Wunderground v.1.15,2013-01-19 04:05:00,
2013-01-18 23:07:00,14.3,6.0,30.39,South,173,2.0,6.0,69,0.00,,,0.00,Wunderground v.1.15,2013-01-19 04:07:00,
2013-01-18 23:09:00,14.4,6.1,30.39,South,173,2.0,6.0,69,0.00,,,0.00,Wunderground v.1.15,2013-01-19 04:09:00,
2013-01-18 23:10:00,14.4,6.1,30.39,South,173,4.0,5.0,69,0.00,,,0.00,Wunderground v.1.15,2013-01-19 04:10:00,
2013-01-18 23:12:00,14.5,6.2,30.39,South,173,4.0,6.0,69,0.00,,,0.00,Wunderground v.1.15,2013-01-19 04:12:00,
2013-01-18 23:14:00,14.6,6.3,30.39,South,174,6.0,6.0,69,0.00,,,0.00,Wunderground v.1.15,2013-01-19 04:14:00,
2013-01-18 23:15:00,14.6,6.3,30.39,South,174,3.0,7.0,69,0.00,,,0.00,Wunderground v.1.15,2013-01-19 04:15:00,
2013-01-18 23:17:00,14.7,6.0,30.39,South,174,1.0,7.0,68,0.00,,,0.00,Wunderground v.1.15,2013-01-19 04:17:00,
2013-01-18 23:19:00,14.7,6.4,30.40,South,173,4.0,7.0,69,0.00,,,0.00,Wunderground v.1.15,2013-01-19 04:19:00,
2013-01-18 23:20:00,14.7,6.4,30.39,South,173,4.0,4.0,69,0.00,,,0.00,Wunderground v.1.15,2013-01-19 04:20:00,
2013-01-18 23:22:00,14.8,6.5,30.40,South,173,3.0,4.0,69,0.00,,,0.00,Wunderground v.1.15,2013-01-19 04:22:00,
2013-01-18 23:25:00,14.8,6.1,30.40,South,173,4.0,8.0,68,0.00,,,0.00,Wunderground v.1.15,2013-01-19 04:25:00,
2013-01-18 23:27:00,14.9,6.2,30.39,South,173,3.0,8.0,68,0.00,,,0.00,Wunderground v.1.15,2013-01-19 04:27:00,
2013-01-18 23:30:00,14.9,6.6,30.39,South,173,2.0,3.0,69,0.00,,,0.00,Wunderground v.1.15,2013-01-19 04:30:00,
2013-01-18 23:32:00,15.0,6.7,30.39,South,173,5.0,5.0,69,0.00,,,0.00,Wunderground v.1.15,2013-01-19 04:32:00,
2013-01-18 23:35:00,15.1,6.4,30.40,South,174,4.0,5.0,68,0.00,,,0.00,Wunderground v.1.15,2013-01-19 04:35:00,
2013-01-18 23:36:00,15.0,6.3,30.40,South,173,3.0,5.0,68,0.00,,,0.00,Wunderground v.1.15,2013-01-19 04:36:00,
2013-01-18 23:37:00,15.0,6.3,30.39,South,173,2.0,5.0,68,0.00,,,0.00,Wunderground v.1.15,2013-01-19 04:37:00,
2013-01-18 23:40:00,15.1,6.8,30.39,South,173,6.0,6.0,69,0.00,,,0.00,Wunderground v.1.15,2013-01-19 04:40:00,
2013-01-18 23:41:00,15.1,6.8,30.39,South,173,3.0,6.0,69,0.00,,,0.00,Wunderground v.1.15,2013-01-19 04:41:00,
2013-01-18 23:42:00,15.2,6.8,30.39,South,173,2.0,6.0,69,0.00,,,0.00,Wunderground v.1.15,2013-01-19 04:42:00,
2013-01-18 23:45:00,15.2,6.8,30.39,South,173,6.0,6.0,69,0.00,,,0.00,Wunderground v.1.15,2013-01-19 04:45:00,
2013-01-18 23:46:00,15.2,6.8,30.39,South,173,5.0,6.0,69,0.00,,,0.00,Wunderground v.1.15,2013-01-19 04:46:00,
2013-01-18 23:47:00,15.2,6.8,30.39,South,173,2.0,6.0,69,0.00,,,0.00,Wunderground v.1.15,2013-01-19 04:47:00,
2013-01-18 23:48:00,15.2,6.8,30.39,South,173,2.0,6.0,69,0.00,,,0.00,Wunderground v.1.15,2013-01-19 04:48:00,
2013-01-18 23:51:00,15.3,7.3,30.39,South,173,2.0,3.0,70,0.00,,,0.00,Wunderground v.1.15,2013-01-19 04:51:00,
2013-01-18 23:52:00,15.3,7.3,30.39,South,173,1.0,8.0,70,0.00,,,0.00,Wunderground v.1.15,2013-01-19 04:52:00,
2013-01-18 23:53:00,15.3,6.9,30.39,South,173,3.0,8.0,69,0.00,,,0.00,Wunderground v.1.15,2013-01-19 04:53:00,
2013-01-18 23:56:00,15.4,6.7,30.39,South,173,3.0,8.0,68,0.00,,,0.00,Wunderground v.1.15,2013-01-19 04:56:00,
2013-01-18 23:57:00,15.5,6.8,30.39,South,173,2.0,8.0,68,0.00,,,0.00,Wunderground v.1.15,2013-01-19 04:57:00,
2013-01-18 23:58:00,15.5,6.8,30.39,South,173,2.0,8.0,68,0.00,,,0.00,Wunderground v.1.15,2013-01-19 04:58:00,